GEFSSGP_con_prob3kmehi_168.txt.gz
EHI
0 0 2 5 5 2 0 0 0 0 0 0 0 0 0 0 0 0 0 0 0 0 0 0 1 2 3 5 5 4 4 3 1 0 0 0 0 0 0 0 0 0 0 0 0 0 0 0 0
0 0 1 3 2 1 0 0 0 0 0 0 0 0 0 0 0 0 0 0 0 0 0 1 1 2 3 4 4 4 3 2 1 0 0 0 0 0 0 0 0 0 0 0 0 0 0 0 0
0 0 0 1 0 0 0 0 0 0 0 0 0 0 0 1 0 0 0 0 0 0 1 2 2 1 2 3 3 3 3 3 1 0 0 0 0 0 0 0 0 0 0 0 0 0 0 0 0
0 0 0 0 0 0 0 0 0 0 0 0 0 0 0 0 0 0 0 0 0 0 1 2 2 1 1 1 2 3 4 3 1 0 0 0 0 0 0 0 0 0 0 0 0 0 0 0 0
0 0 0 0 0 0 0 0 0 0 0 0 0 0 0 0 0 0 0 0 0 0 0 1 3 2 2 2 3 3 3 1 0 0 0 0 0 0 0 0 0 0 0 0 0 0 0 0 0
0 0 0 0 0 0 0 0 0 0 0 0 0 0 1 1 0 0 0 0 0 0 0 1 3 3 3 4 4 3 2 1 0 0 0 0 0 0 0 0 0 0 0 0 0 0 0 0 0
0 0 0 0 0 0 0 0 0 0 1 1 0 0 3 4 2 0 0 0 0 0 0 0 1 2 3 4 4 4 3 2 1 0 0 0 0 0 0 0 0 0 0 0 0 0 0 0 0
0 0 0 0 0 0 0 0 0 1 2 2 1 0 5 10 7 2 1 0 0 0 0 0 0 1 1 3 4 4 4 4 3 2 1 0 0 0 0 0 0 0 0 0 0 0 0 0 0
0 0 0 0 0 0 0 0 0 2 3 3 2 5 14 21 15 6 3 1 1 1 0 0 0 0 0 1 2 3 4 4 3 2 1 1 0 0 0 0 0 0 0 0 0 0 0 0 0
0 0 0 0 0 0 0 0 0 1 3 5 8 16 29 32 22 11 6 4 3 2 1 0 0 0 0 0 1 1 2 2 1 1 1 1 1 0 0 0 0 0 0 0 0 0 0 0 0
0 0 0 0 0 0 0 0 0 0 1 6 16 30 38 33 22 13 8 5 3 2 1 0 0 1 1 0 0 0 1 1 1 0 1 1 1 0 0 0 0 0 0 0 0 0 0 0 0
0 0 0 0 0 0 0 0 1 1 1 7 23 38 39 29 19 13 9 6 3 2 1 1 1 3 3 2 1 2 2 2 2 1 1 1 1 1 1 0 0 0 0 0 0 0 0 0 0
0 0 0 0 0 0 0 1 2 2 2 9 27 38 35 26 18 12 9 7 5 4 4 4 4 6 7 6 4 3 3 2 2 3 2 1 1 1 0 0 0 0 0 0 0 0 0 0 0
0 0 0 0 0 0 0 1 3 4 5 12 26 34 31 23 17 11 9 9 7 6 7 8 8 8 8 7 5 3 3 2 2 3 3 2 1 0 0 0 0 0 0 0 1 1 0 0 0
0 0 0 0 0 0 0 1 4 6 8 12 20 26 27 24 18 13 10 9 8 7 7 9 9 9 7 5 4 3 1 1 1 2 3 2 1 0 0 0 0 0 0 1 1 1 0 0 0
0 0 0 0 0 0 0 2 5 6 8 11 14 18 24 26 22 16 12 10 9 10 11 12 11 10 10 7 5 3 1 0 1 3 3 3 1 0 0 0 0 0 1 1 1 0 0 0 0
0 0 0 0 0 0 0 2 5 6 7 9 11 16 24 27 23 18 14 11 12 15 19 19 15 14 14 11 7 4 2 2 2 3 3 3 2 1 0 0 0 0 1 2 1 0 0 0 0
0 0 0 0 0 0 0 1 4 6 7 7 10 15 23 25 22 19 17 15 16 20 25 26 23 20 18 14 10 7 5 3 3 3 3 3 3 1 1 0 0 1 2 3 2 2 2 1 1
0 0 0 0 0 0 0 1 4 6 6 6 9 15 23 24 23 23 23 22 21 24 29 31 30 26 23 19 14 11 7 5 4 3 3 3 3 3 2 1 1 2 3 4 4 4 4 3 2
0 0 0 0 0 0 0 1 3 5 6 7 9 15 21 25 27 31 32 30 29 31 33 34 33 30 26 22 18 15 10 7 5 4 3 3 3 3 2 1 3 5 6 5 5 6 5 4 3
0 0 0 0 0 0 0 1 2 4 7 9 11 12 16 22 29 35 39 40 39 40 39 35 34 34 30 24 20 17 12 8 6 4 3 2 2 3 3 3 5 7 8 7 6 6 5 4 3
0 0 0 0 0 0 0 0 1 4 7 12 13 12 13 19 27 35 41 46 47 46 44 40 39 39 36 28 22 19 13 8 5 3 2 1 1 3 5 6 6 6 7 6 6 5 5 4 4
0 0 0 0 0 0 0 0 0 2 5 10 15 16 15 19 29 38 42 46 46 45 44 44 44 44 41 33 25 19 12 6 3 2 2 3 3 3 5 7 7 6 6 6 5 5 5 6 6
0 0 0 0 0 0 0 0 0 1 2 6 13 17 19 23 33 42 45 45 44 43 44 46 46 46 42 35 25 18 13 7 4 2 4 7 8 6 4 6 8 9 9 7 8 7 6 7 9
0 0 0 0 0 0 0 0 0 1 2 4 10 18 23 28 35 43 46 47 46 44 45 45 46 45 41 34 26 19 15 12 7 4 4 8 11 9 6 5 8 11 11 11 12 10 7 9 11
0 0 0 0 0 0 0 0 0 1 2 5 10 18 26 32 37 40 42 43 43 41 40 40 41 40 37 32 26 20 16 13 8 5 5 7 9 9 7 6 8 11 12 13 16 13 10 11 13
0 0 0 0 0 0 0 0 0 0 1 5 10 18 28 35 37 35 34 35 36 34 33 33 33 32 29 26 22 17 13 11 8 6 5 5 5 5 4 4 6 8 10 13 16 15 13 13 14
0 0 0 0 0 0 0 0 0 1 3 6 11 19 29 35 34 32 32 32 30 28 28 28 27 25 24 22 20 16 13 11 10 8 6 5 5 4 4 4 6 7 8 11 14 14 13 13 13
0 0 0 0 0 0 0 0 1 3 6 10 14 21 30 35 35 36 38 36 30 27 28 29 27 25 23 20 18 15 14 13 11 9 6 6 7 7 7 7 9 8 7 8 10 10 10 10 9
0 0 0 0 0 0 0 1 2 4 8 13 18 25 32 37 40 42 44 39 31 30 31 31 29 25 22 18 15 13 12 12 11 9 7 7 9 10 10 10 11 10 6 6 8 9 8 8 8

GEFSSGP_con_prob3kmehi_174.txt.gz
EHI
8 15 27 33 23 6 0 0 0 0 0 0 0 0 0 1 0 1 2 4 6 2 0 1 1 1 0 0 0 0 0 0 0 0 0 0 0 0 0 0 0 0 0 0 0 0 0 0 0
7 15 23 24 15 4 0 0 0 0 0 0 0 0 0 1 0 0 2 4 5 3 1 1 0 0 0 0 0 0 0 0 0 0 0 0 0 0 0 0 0 0 0 0 0 0 0 0 0
11 15 17 13 5 1 0 0 0 0 0 0 0 0 0 0 0 0 2 5 6 5 3 1 0 0 0 0 0 0 0 0 0 0 0 0 0 0 0 0 0 0 0 0 0 0 0 0 0
12 12 10 5 1 0 0 0 0 0 0 1 1 1 1 0 0 1 3 6 9 7 4 2 2 1 0 0 0 0 0 0 0 0 0 0 0 0 0 0 0 0 0 0 0 0 0 0 0
7 6 3 1 0 0 0 0 0 0 1 2 3 4 2 0 0 2 2 5 9 10 7 5 3 2 1 1 1 0 0 0 0 0 0 0 0 0 0 0 0 0 0 0 0 0 0 0 0
4 3 1 0 0 0 0 0 0 0 1 2 3 4 2 0 0 1 2 4 9 11 10 6 4 3 3 3 2 1 1 1 0 0 0 0 0 0 0 0 0 0 0 0 0 0 0 0 0
3 2 0 0 0 0 0 0 0 0 1 2 2 3 3 1 0 0 1 4 9 11 9 5 4 4 5 4 3 3 2 2 1 0 1 1 0 0 0 0 0 0 0 0 0 0 0 1 1
1 0 0 0 0 0 0 0 0 0 1 2 3 4 4 3 1 1 2 5 9 11 8 5 4 5 6 4 3 3 3 3 2 2 2 2 1 0 0 0 0 0 0 0 0 0 0 1 2
0 0 0 0 0 0 0 0 0 0 1 4 6 7 6 4 2 2 3 5 9 10 8 6 6 6 6 5 3 2 2 3 3 4 4 3 1 1 1 2 2 1 0 0 0 0 1 2 2
0 0 0 0 0 0 0 0 0 0 2 8 13 13 9 6 3 2 3 7 11 10 7 6 7 5 6 7 5 2 2 3 4 5 5 3 1 1 2 3 3 1 0 0 1 1 1 2 3
0 0 0 0 0 0 0 0 0 0 3 12 20 19 13 9 7 6 6 10 13 11 8 9 11 10 11 11 6 3 4 5 4 5 6 4 2 1 2 3 3 3 2 2 3 2 1 2 4
0 0 0 0 0 0 0 0 0 1 6 16 23 23 17 14 12 10 10 14 16 14 14 19 23 23 22 17 9 6 7 7 8 9 8 5 2 1 1 2 4 4 4 3 2 2 1 1 3
0 0 0 0 0 0 0 0 0 2 9 19 24 23 21 20 19 16 16 21 23 21 22 29 33 31 27 23 16 11 10 10 12 13 10 6 4 2 2 2 3 2 2 2 1 1 1 1 1
0 0 0 0 0 0 0 0 0 3 11 20 23 20 20 23 25 24 26 32 32 29 29 32 34 31 26 22 19 14 11 11 14 17 14 8 5 5 3 1 1 1 2 4 3 1 1 1 0
0 0 0 0 0 1 1 1 1 4 12 21 23 20 21 26 30 33 38 42 40 37 36 34 31 30 27 21 17 13 10 11 16 21 19 12 8 7 5 3 1 2 5 8 6 3 2 1 1
0 0 0 0 0 1 3 4 3 5 12 22 27 27 29 33 36 40 46 49 49 50 49 39 33 34 32 25 18 13 11 13 18 23 23 17 11 9 7 5 4 5 6 8 7 3 1 1 1
0 0 0 0 0 1 3 4 4 5 11 21 33 40 44 44 44 49 54 57 61 66 63 50 41 41 39 32 24 16 14 16 18 23 27 23 14 10 7 6 9 9 6 5 5 4 4 3 2
0 0 0 0 0 1 3 4 4 5 9 20 37 51 58 55 54 58 62 66 71 73 70 60 53 49 44 37 30 21 16 15 17 24 32 29 19 13 9 9 13 14 9 6 6 8 9 6 4
0 0 0 0 0 2 4 4 5 6 8 19 37 55 65 66 66 67 68 71 74 74 73 68 63 56 46 38 33 27 21 16 16 23 33 34 25 18 13 12 16 16 12 10 9 11 10 7 5
0 0 0 0 0 1 2 4 5 6 8 16 32 53 67 74 77 75 74 76 78 77 75 71 68 61 51 41 36 31 25 21 18 23 33 36 28 21 16 15 17 16 14 13 13 13 11 6 4
0 0 0 0 0 0 1 2 4 4 6 13 26 46 64 76 82 82 80 82 82 79 74 69 68 65 57 50 43 37 32 26 22 25 31 32 26 19 15 16 16 16 16 17 18 16 12 8 5
0 0 0 0 0 0 0 1 2 2 5 12 22 39 58 71 80 84 84 83 81 76 71 69 69 67 63 57 51 47 40 30 23 25 28 27 21 15 13 14 15 15 16 17 18 16 15 12 9
0 0 0 0 0 0 0 1 1 1 5 13 23 36 52 66 76 83 85 82 78 73 70 70 70 69 67 61 55 50 42 30 23 25 28 26 20 14 12 12 15 17 16 15 15 16 17 16 13
0 0 0 0 0 0 0 0 0 1 5 13 23 36 51 64 75 84 86 81 74 70 70 70 70 70 68 62 54 49 40 30 25 27 29 26 22 19 16 16 19 22 20 17 16 18 19 16 14
0 0 0 0 0 0 0 1 2 4 7 12 23 38 53 64 75 83 85 81 74 71 71 71 71 70 66 59 51 46 39 31 26 27 27 25 23 23 23 23 26 27 24 19 17 19 19 18 17
0 0 0 0 0 0 0 2 5 8 10 15 24 38 50 60 68 75 79 77 72 70 70 70 70 67 63 55 47 42 37 30 26 26 26 25 23 21 23 27 28 27 22 16 15 16 17 20 22
0 0 0 0 0 0 0 3 7 12 14 18 27 37 46 53 57 63 67 68 64 64 65 65 65 63 57 50 43 39 35 30 27 29 28 25 22 20 22 24 25 24 20 16 13 13 16 19 21
0 0 0 0 0 0 0 2 8 15 18 23 29 37 44 47 49 54 58 58 57 57 57 57 57 56 50 44 38 34 31 29 29 29 28 26 23 21 21 20 19 20 21 20 17 15 15 16 17
0 0 0 0 0 0 0 1 6 13 19 26 33 37 43 47 48 53 57 56 53 52 51 51 50 47 41 35 32 29 26 25 25 26 26 25 22 20 19 18 17 18 20 20 18 16 15 14 13
0 0 0 0 0 0 0 1 3 8 16 27 35 39 44 49 52 56 59 58 53 50 49 48 46 41 34 30 29 27 24 21 21 23 23 22 20 17 16 17 17 17 19 20 17 14 14 13 11

GEFSSGP_con_prob3kmehi_180.txt.gz
EHI
1 1 1 1 1 0 0 0 0 0 0 0 0 0 1 0 0 0 0 1 3 4 3 4 6 6 5 4 2 1 0 0 0 0 0 0 0 0 0 0 0 0 0 0 0 0 0 0 0
1 0 0 0 0 0 0 0 0 0 0 0 0 0 1 0 0 0 0 1 2 3 3 4 6 6 6 6 4 2 0 0 0 0 0 0 0 0 0 0 0 0 0 0 0 0 0 0 0
0 0 0 0 0 0 0 1 2 1 0 0 0 0 0 0 0 0 0 1 1 1 1 3 6 7 7 7 6 3 1 0 0 0 0 0 0 0 0 0 0 0 0 0 0 0 0 0 0
0 0 0 0 0 0 0 2 4 3 1 1 1 0 0 1 2 2 1 1 1 0 0 2 5 7 6 6 5 3 1 0 0 0 0 0 0 0 0 0 0 0 0 0 0 0 0 0 0
0 0 0 0 0 0 1 3 4 3 2 2 2 1 1 4 7 5 2 1 1 1 0 1 4 5 5 4 4 2 1 0 0 0 0 0 0 0 0 0 0 0 0 0 0 0 0 0 0
0 0 0 0 0 0 2 3 4 3 2 2 2 1 3 8 11 8 3 2 1 1 0 1 2 4 4 3 2 1 0 0 0 0 0 0 0 0 0 0 0 0 0 0 0 0 0 0 0
0 0 0 0 0 0 1 3 3 2 1 1 1 1 4 10 12 9 5 3 1 1 1 1 1 2 3 2 1 0 0 0 0 0 0 0 0 0 0 0 0 0 0 0 0 0 0 0 1
0 0 0 0 0 0 1 2 2 1 1 0 0 1 5 11 15 13 9 4 2 2 2 2 1 1 1 1 0 0 0 0 0 0 0 0 0 0 0 0 0 0 0 0 0 1 1 1 2
0 0 0 0 0 1 2 2 2 2 2 1 3 6 11 17 22 21 15 8 5 3 3 2 1 0 0 0 0 0 0 0 0 0 0 0 0 0 0 0 0 0 0 0 1 2 2 2 2
0 0 0 0 0 1 2 3 3 3 4 6 9 13 18 23 29 28 22 14 9 5 3 1 1 1 1 0 0 0 0 0 0 0 0 0 0 0 0 0 0 0 0 0 1 2 2 1 1
0 0 0 0 0 1 2 3 4 5 6 11 15 17 18 21 26 29 25 19 12 8 4 1 1 2 1 1 0 0 0 0 0 0 0 0 0 0 0 0 0 0 0 0 0 1 1 0 0
0 0 0 0 0 0 1 2 5 7 8 12 16 15 14 15 19 23 24 20 15 11 7 4 2 2 1 1 2 1 0 0 0 0 0 0 0 0 0 0 0 0 0 0 0 0 0 0 0
0 0 0 0 0 1 2 3 6 10 10 11 14 13 11 11 12 16 21 22 21 18 14 9 5 3 2 3 4 4 2 1 0 0 0 0 0 0 0 0 0 0 0 0 0 0 0 0 0
0 0 0 0 1 3 4 6 9 12 12 13 14 14 12 11 13 16 21 26 28 26 21 16 12 9 7 6 7 7 5 3 1 0 0 0 0 0 0 0 0 0 0 0 0 0 0 0 0
0 0 0 0 1 3 5 7 11 14 15 16 18 17 15 16 20 22 24 29 33 34 29 24 20 16 12 8 7 7 6 4 2 0 0 0 0 0 0 0 0 0 0 0 0 0 0 0 0
0 0 0 0 0 2 3 7 12 16 17 19 19 19 20 23 26 27 30 33 37 39 36 31 25 18 12 8 7 6 4 2 1 0 0 0 0 0 0 0 0 0 0 0 0 0 0 0 0
0 0 0 0 0 1 2 7 13 18 20 21 21 22 24 27 29 32 37 41 41 40 38 33 25 16 11 9 8 6 3 1 0 0 0 0 1 1 0 0 0 0 0 0 0 0 0 0 0
0 0 0 0 0 1 3 9 17 22 24 25 26 27 26 27 31 38 47 52 48 42 38 34 25 17 12 10 9 7 5 2 0 0 0 0 1 1 1 1 0 0 0 0 0 0 0 0 0
0 0 0 1 1 1 3 11 20 26 29 30 32 32 29 28 33 43 54 59 55 47 42 36 29 21 16 13 11 9 7 3 1 1 1 1 1 1 2 2 1 0 0 0 0 0 0 0 1
0 0 0 1 1 1 3 8 15 23 29 31 34 35 34 36 42 49 57 62 60 54 48 41 32 25 20 16 12 9 6 3 2 2 2 1 0 0 1 1 1 1 1 1 1 1 0 0 1
0 0 0 1 1 1 2 4 8 16 24 30 35 38 41 45 50 55 58 60 60 57 50 43 34 25 21 17 12 8 6 4 3 3 2 1 0 0 0 1 1 3 4 3 2 1 1 1 1
0 0 0 0 0 0 1 1 6 13 20 28 36 41 45 48 53 58 59 59 58 56 50 44 37 28 21 15 11 8 7 5 4 3 1 0 0 0 0 0 2 4 5 4 2 2 2 1 1
0 0 0 0 0 0 0 0 4 10 18 27 37 45 48 49 54 58 59 57 55 52 48 44 38 30 22 16 12 10 7 5 3 2 0 0 1 0 0 0 1 3 3 3 1 1 1 1 1
0 0 0 0 0 0 0 0 1 6 15 27 40 49 52 53 56 59 57 55 52 48 45 43 38 30 22 17 15 13 9 6 4 2 1 1 1 0 0 0 1 1 2 2 1 0 0 0 1
0 0 0 0 0 0 0 0 0 3 11 27 41 51 56 56 59 60 56 52 50 46 43 41 39 33 25 21 19 15 11 8 6 3 2 1 1 0 0 1 2 2 2 2 1 0 0 0 0
0 0 0 0 0 0 0 0 2 6 14 27 40 51 56 58 60 60 55 51 49 47 46 44 42 38 31 24 20 16 12 8 5 3 2 2 1 0 0 1 2 3 2 1 0 1 1 1 1
0 0 0 0 0 0 0 1 5 11 19 27 38 49 54 54 55 55 51 47 45 45 46 46 42 38 33 25 19 15 10 6 3 2 1 1 0 0 0 0 2 2 2 0 1 2 2 2 2
0 0 0 0 0 0 0 0 4 12 19 26 35 45 50 50 49 48 43 40 39 39 39 39 35 30 28 24 18 12 8 5 3 2 0 0 1 1 1 1 2 3 2 1 1 2 3 2 2
0 0 0 0 0 0 0 0 3 10 18 26 35 43 47 47 45 41 36 34 33 32 32 30 27 24 22 21 16 12 8 6 4 2 1 1 2 2 2 3 3 3 2 1 1 2 1 1 1
0 0 0 0 0 0 0 0 2 9 19 27 37 45 48 46 43 39 34 32 30 29 29 28 24 20 18 18 15 12 9 7 4 2 1 2 3 3 3 3 3 2 1 1 1 1 0 0 0

GEFSSGP_con_prob3kmehi_186.txt.gz
EHI
4 2 0 0 0 0 0 0 0 0 0 0 0 0 0 0 0 0 0 0 0 0 0 1 2 2 3 4 4 3 2 1 0 0 0 0 0 0 0 0 0 0 0 0 1 1 1 0 0
2 1 0 0 0 0 0 0 0 0 0 0 0 0 0 0 0 0 0 0 0 0 0 0 1 2 2 3 3 4 2 1 0 0 0 0 0 0 0 0 0 0 0 0 0 0 0 0 0
0 0 0 0 0 0 0 0 0 0 0 0 0 0 0 0 0 0 0 0 0 0 0 1 2 2 2 2 3 3 1 1 0 0 0 0 0 0 0 0 0 0 0 0 0 0 0 0 0
0 0 0 0 0 0 0 0 0 0 0 0 0 0 0 0 0 0 0 0 0 0 0 1 4 4 4 3 2 1 0 0 0 0 0 0 0 0 0 0 0 0 0 0 0 0 0 0 0
0 0 0 0 0 0 0 0 0 0 0 0 1 1 1 0 0 0 0 0 0 0 0 1 4 5 5 3 1 0 0 0 0 0 0 0 0 0 0 0 0 0 0 0 0 0 0 0 0
0 0 0 0 0 0 0 0 1 0 0 0 1 2 1 0 0 0 0 0 0 0 0 0 2 3 3 2 1 0 0 0 0 0 0 0 0 0 0 0 0 0 0 0 0 0 0 0 0
0 0 0 0 0 0 0 0 0 0 0 0 1 1 0 0 0 0 0 0 0 0 0 0 0 1 2 2 1 0 0 0 0 0 0 0 0 0 0 0 0 0 0 0 0 0 0 0 0
0 0 0 0 0 0 0 0 0 0 0 0 0 1 0 0 0 0 1 2 1 0 0 0 0 0 1 1 1 0 0 0 0 0 0 0 0 0 0 0 0 0 0 0 0 0 0 0 0
0 0 0 0 0 0 0 0 0 0 0 0 0 1 2 2 2 2 2 3 2 1 0 0 0 0 0 0 0 0 0 0 0 0 0 0 0 0 0 0 0 0 0 0 0 0 0 0 0
0 0 0 0 0 0 0 0 0 0 0 0 1 4 7 6 4 3 2 2 2 1 0 0 0 0 0 0 0 0 0 0 0 0 0 0 0 0 0 0 0 0 0 0 0 0 0 0 0
0 0 0 0 1 1 1 0 1 1 1 1 5 11 13 9 5 3 1 1 1 1 0 0 0 0 0 0 0 0 0 0 0 0 0 0 0 0 0 0 0 0 0 0 0 0 0 0 0
0 0 0 0 1 1 1 0 1 2 1 2 9 17 17 11 5 2 1 0 0 0 0 0 0 0 0 0 0 0 0 0 0 0 0 0 0 0 0 0 0 0 0 0 0 0 0 0 0
0 0 0 0 0 0 0 1 2 3 3 5 11 17 17 11 6 2 0 0 0 0 0 0 0 0 0 0 0 0 0 0 0 0 0 0 0 0 0 0 0 0 0 0 0 0 0 0 0
0 0 0 0 0 0 1 2 3 3 5 8 12 15 15 12 7 4 3 2 1 0 0 0 0 0 0 0 0 0 0 0 0 0 0 0 0 0 0 0 0 0 0 0 0 0 0 0 0
0 0 0 0 0 0 1 2 3 4 7 10 12 13 13 11 7 6 7 6 3 1 0 0 0 0 0 0 0 0 0 0 0 0 0 0 0 0 0 0 0 0 0 0 0 0 0 0 0
0 0 0 0 0 0 1 1 3 5 8 9 10 10 10 9 7 7 9 8 4 2 1 1 2 2 1 1 1 1 1 1 0 0 0 0 0 0 0 0 0 0 0 0 0 0 0 0 0
0 0 0 0 0 0 0 1 3 6 8 8 7 8 8 8 7 8 11 11 8 5 3 3 4 4 3 3 3 3 2 1 0 0 0 0 0 0 0 0 0 0 0 0 0 0 0 0 0
0 0 0 0 0 0 0 1 4 7 7 5 5 8 9 9 8 10 13 13 12 9 6 5 5 5 5 5 5 3 1 1 0 0 0 0 0 0 0 0 0 0 0 0 0 0 0 0 0
0 0 0 0 0 0 0 2 4 6 5 3 4 9 12 11 10 11 14 16 15 11 8 7 7 6 6 6 5 2 0 0 0 0 0 0 0 0 0 0 0 0 0 0 0 0 0 0 0
0 0 0 0 0 0 0 2 4 4 3 2 4 9 13 13 12 13 15 17 17 14 11 10 9 8 6 5 4 1 0 0 0 0 0 0 0 0 0 0 0 0 0 0 0 0 0 0 0
0 0 0 0 0 0 0 1 2 2 2 2 4 9 14 15 16 17 19 21 19 15 13 12 11 9 7 6 4 3 2 1 0 0 0 0 0 0 0 0 0 0 0 0 0 0 0 0 0
0 0 0 0 0 0 0 0 0 1 2 3 5 10 16 19 19 21 24 24 22 18 14 11 10 8 8 7 6 6 6 4 1 1 1 0 0 0 0 0 0 0 0 0 0 0 0 0 0
0 0 0 0 0 0 0 0 0 1 2 4 7 12 18 22 23 24 26 26 24 19 13 9 7 6 7 7 7 7 7 4 2 2 2 1 0 0 0 0 0 0 0 0 0 0 0 0 0
0 0 0 0 0 0 0 0 0 0 1 4 9 15 21 24 25 25 25 26 25 19 12 9 6 5 6 6 6 6 6 5 3 3 3 2 1 0 0 0 0 0 0 0 0 0 0 0 0
0 0 0 0 0 0 0 0 0 0 0 4 11 19 24 25 25 25 25 26 24 19 15 12 8 6 5 6 6 6 6 6 4 3 3 2 1 0 0 0 0 0 0 0 0 0 0 0 0
0 0 0 0 0 0 0 0 0 0 2 7 14 20 24 25 23 23 24 25 23 20 18 14 10 6 6 6 7 6 6 5 4 3 2 1 0 0 0 0 0 0 0 0 0 0 0 0 0
0 0 0 0 0 0 0 0 0 1 4 10 16 21 23 23 21 21 23 23 23 21 17 14 10 6 6 7 7 5 4 4 3 2 1 0 0 0 0 0 0 0 0 0 0 0 0 0 0
0 0 0 0 0 0 0 0 0 1 4 9 14 18 21 24 23 22 21 22 23 20 15 11 8 6 6 6 5 4 3 2 1 1 0 0 0 0 0 0 0 0 0 0 0 0 0 0 0
0 0 0 0 0 0 0 0 0 2 4 7 12 17 22 26 27 24 20 19 20 18 13 10 7 6 6 5 3 2 2 1 0 0 0 0 0 0 0 0 0 0 0 0 0 0 0 0 0
0 0 0 0 0 0 0 0 1 3 6 8 12 19 24 27 27 25 21 17 16 15 13 11 8 6 5 4 2 1 1 0 0 0 0 0 0 0 0 0 0 0 0 0 0 0 0 0 0

GEFSSGP_con_prob3kmehi_192.txt.gz
EHI
3 4 8 9 4 1 0 0 0 0 0 0 0 0 0 0 0 0 0 0 0 0 0 0 0 0 1 1 0 0 0 0 0 0 0 0 0 0 0 0 0 0 0 0 0 0 0 0 0
2 4 6 5 2 0 0 0 0 0 0 0 0 0 0 0 0 0 0 0 0 0 0 0 0 0 1 2 1 0 0 0 0 0 0 0 0 0 0 0 0 0 0 0 0 0 0 0 0
1 2 3 1 0 0 0 0 0 0 0 0 0 0 0 0 0 0 0 0 0 0 0 0 0 0 1 2 2 1 0 0 0 0 0 0 0 0 0 0 0 0 0 0 0 0 0 0 0
1 1 1 0 0 0 0 0 0 0 0 0 0 0 0 0 0 0 0 0 0 0 1 0 0 0 1 1 1 1 0 0 0 0 0 0 0 0 0 0 0 0 0 0 0 0 0 0 0
1 1 0 0 0 0 0 0 0 0 0 0 0 0 0 0 0 0 0 0 0 0 0 0 0 0 0 0 0 0 0 0 0 0 0 0 0 0 0 0 0 0 0 0 0 0 0 0 0
1 0 0 0 0 0 0 0 0 0 0 0 0 0 0 0 0 0 0 0 0 0 0 0 0 0 0 0 0 0 0 0 0 0 0 0 0 0 0 0 0 0 0 0 0 0 0 0 0
0 0 0 0 0 0 0 0 0 0 0 0 0 0 1 1 0 0 0 0 0 0 0 0 0 0 0 0 0 0 0 0 0 0 0 0 0 0 0 0 0 0 0 0 0 0 0 0 0
0 0 0 0 0 0 0 0 0 0 0 0 0 1 2 2 1 1 1 1 0 0 0 0 0 0 0 0 0 0 0 0 0 0 0 0 0 0 0 0 0 0 0 0 0 0 0 0 0
0 0 0 0 0 0 0 0 0 1 1 1 0 1 3 4 3 2 2 2 1 0 0 0 0 0 0 0 0 0 0 0 1 1 0 0 0 0 0 0 0 0 0 0 0 0 0 0 0
0 0 0 0 0 0 0 0 0 1 1 1 1 3 5 6 4 3 3 3 2 0 0 0 0 0 0 0 0 0 0 0 0 1 1 0 0 0 0 0 0 0 0 0 0 0 0 0 0
0 0 0 0 0 0 0 0 0 0 0 1 3 6 8 7 5 3 3 3 1 0 0 0 0 0 0 0 0 0 0 0 0 0 0 0 0 0 0 0 0 0 0 0 0 0 0 0 0
0 0 0 0 0 0 0 0 0 0 0 1 3 8 9 8 5 4 3 2 1 0 0 1 1 1 1 0 0 0 0 0 0 0 0 0 0 0 0 0 0 0 0 0 0 0 0 0 0
0 0 0 0 0 0 0 0 0 0 0 1 3 6 7 7 6 4 3 1 0 0 1 2 2 2 2 2 1 0 0 1 1 0 0 0 0 0 0 0 0 1 1 1 0 0 0 0 0
0 0 0 0 0 0 0 0 0 1 1 2 4 6 7 7 6 5 3 1 0 0 1 3 3 4 5 5 4 2 2 2 2 1 0 0 1 0 0 0 1 1 0 1 1 0 0 0 0
0 0 0 0 0 0 0 1 2 3 3 3 4 6 8 7 7 5 3 1 1 2 5 5 5 5 7 7 6 6 5 4 3 2 1 1 1 0 0 0 0 0 0 0 0 0 0 0 0
0 0 0 0 0 0 0 2 5 5 4 4 4 5 8 9 8 6 5 3 3 6 10 10 7 6 7 8 8 9 9 7 5 3 2 1 0 0 0 0 0 0 0 0 0 0 0 0 0
0 0 0 0 0 0 0 2 5 5 4 4 5 5 7 10 10 8 7 7 7 9 13 13 10 8 8 8 9 10 9 8 5 3 2 1 1 0 0 0 0 0 1 0 0 0 0 0 0
0 0 0 0 0 0 0 1 4 4 4 4 5 5 7 9 10 10 10 10 11 11 13 13 13 13 12 10 9 9 9 8 5 2 1 1 1 0 0 0 0 0 0 0 0 0 0 0 0
0 0 0 0 0 0 0 1 3 5 5 4 5 7 9 10 12 13 13 13 14 13 13 13 15 19 18 15 11 10 9 7 5 2 0 0 0 0 0 0 0 0 0 0 0 0 0 0 0
0 0 0 0 0 0 0 1 4 6 7 6 7 10 12 13 16 19 19 18 18 17 17 16 17 20 22 18 14 11 9 7 5 3 1 1 1 0 0 0 0 0 0 0 0 0 0 0 0
0 0 0 0 0 0 0 2 5 9 11 10 11 13 14 16 21 24 24 23 23 22 22 21 21 21 22 20 15 11 9 7 6 5 4 3 3 1 0 0 0 0 0 0 0 0 0 0 0
0 0 0 0 0 0 0 1 5 10 14 15 16 16 15 17 22 25 26 27 26 24 23 24 24 22 21 19 15 11 9 7 7 7 7 6 5 3 1 1 0 0 0 0 0 0 0 0 1
0 0 0 0 0 0 0 0 3 6 10 14 18 19 18 21 24 25 26 28 27 24 23 25 25 23 20 18 15 12 9 7 7 8 9 8 7 5 4 3 1 1 0 1 1 1 1 2 3
0 0 0 0 0 0 0 0 1 2 4 8 16 22 24 25 25 25 27 30 30 28 27 28 30 27 19 16 15 14 12 10 10 11 11 10 7 6 5 4 3 1 1 1 2 1 1 4 6
0 0 0 0 0 0 0 0 0 1 2 5 13 23 29 29 28 27 29 33 37 38 36 34 34 30 20 15 15 16 15 14 14 14 13 10 7 5 5 4 3 2 1 1 2 2 2 5 9
0 0 0 0 0 0 0 0 0 1 3 6 12 22 29 31 32 32 33 36 41 44 42 37 34 30 21 15 15 15 14 14 15 16 14 11 8 5 5 5 4 3 2 1 2 3 4 6 10
0 0 0 0 0 0 0 0 0 2 6 10 14 21 28 31 31 34 36 37 39 43 42 37 34 31 23 17 15 15 13 13 15 17 15 11 8 6 6 8 7 5 4 4 5 5 5 7 8
0 0 0 0 0 0 0 0 1 3 8 12 15 20 25 27 29 35 38 37 36 37 36 35 34 31 24 18 16 15 15 15 16 17 17 15 12 9 8 8 8 7 7 7 9 8 6 5 5
0 0 0 0 0 0 0 0 0 3 7 11 15 21 25 26 31 36 40 38 36 34 33 32 31 27 23 19 18 19 18 17 16 17 18 17 17 14 11 10 10 10 8 8 8 7 5 3 2
0 0 0 0 0 0 0 0 0 1 5 9 16 23 27 29 31 35 39 40 36 34 33 30 27 24 21 21 22 23 21 18 18 18 17 17 17 16 13 12 12 10 8 7 6 5 3 1 0

GEFSSGP_con_prob3kmehi_198.txt.gz
EHI
6 14 31 39 27 8 1 0 0 0 0 0 0 0 0 0 0 0 1 4 4 1 0 0 0 0 0 0 0 0 0 0 0 0 0 0 0 0 0 0 0 0 0 0 0 0 0 0 0
10 19 29 28 15 4 0 0 0 0 0 0 0 0 0 0 0 0 1 3 4 3 1 1 0 0 0 0 0 0 0 0 0 0 0 0 0 0 0 0 0 0 0 0 0 0 0 0 0
16 23 24 15 4 0 0 0 0 0 0 0 0 0 0 0 0 0 1 3 5 4 3 1 0 0 0 0 0 0 0 0 0 0 0 0 0 0 0 0 0 0 0 0 0 0 0 0 0
21 21 15 6 1 0 0 0 0 0 0 0 0 0 0 1 2 1 1 2 3 3 2 1 0 0 0 0 0 0 0 0 0 0 0 0 0 0 0 0 0 0 0 0 0 0 0 0 0
16 12 6 1 0 0 0 0 0 0 0 0 0 0 0 2 3 3 2 1 3 3 1 0 1 1 0 0 0 0 0 0 0 0 0 0 0 0 0 0 0 0 0 0 0 0 0 0 0
6 4 1 0 0 0 0 0 0 0 0 0 0 0 1 2 3 3 2 1 3 4 2 1 2 2 1 0 0 0 0 0 0 0 0 0 0 0 0 0 0 0 0 0 0 0 0 0 0
2 1 0 0 0 0 0 0 0 0 0 0 1 1 2 2 2 2 2 2 3 4 3 2 2 2 1 0 0 0 0 0 0 0 0 0 1 1 0 0 0 0 0 0 0 0 0 0 0
1 0 0 0 0 0 0 0 0 0 0 0 1 2 3 2 1 1 3 4 2 2 2 2 3 3 2 1 1 0 0 0 0 1 1 1 2 1 0 0 0 0 0 0 0 0 1 1 1
0 0 0 0 1 0 0 0 0 0 1 1 1 2 3 2 1 1 3 5 3 1 1 2 3 4 3 2 2 2 1 2 2 2 2 2 2 1 0 0 0 0 0 0 1 2 2 3 3
0 0 0 0 0 0 0 0 0 0 1 2 2 3 3 2 1 1 3 5 4 2 2 2 2 3 3 3 3 3 4 5 4 4 3 2 1 0 1 1 2 2 1 1 2 3 3 2 2
0 0 0 0 0 0 0 0 0 0 1 2 3 4 4 3 1 1 3 5 4 3 3 3 4 6 7 5 3 4 6 7 5 3 2 1 1 0 1 2 2 2 1 1 2 3 2 1 0
0 0 0 0 0 0 0 0 0 0 0 2 5 5 5 3 1 1 3 5 4 4 5 7 9 12 12 9 6 7 8 7 4 3 2 1 1 1 0 1 1 2 1 1 1 2 1 0 1
0 0 0 0 0 0 0 0 0 0 0 2 4 5 5 3 4 5 7 8 8 8 11 15 16 18 16 14 12 11 9 6 4 4 3 1 1 1 1 1 1 2 1 1 2 1 0 1 2
0 0 0 0 0 0 0 0 1 1 1 2 3 4 4 5 8 13 16 16 14 14 17 19 21 22 20 16 13 11 8 6 4 4 2 2 2 2 1 1 1 1 2 4 3 1 1 2 2
0 0 0 0 0 0 1 1 2 3 4 5 5 5 6 9 15 20 24 24 21 22 21 18 20 24 22 15 11 9 7 7 7 5 3 2 3 3 2 2 1 1 3 5 4 2 1 1 1
0 0 0 0 0 0 2 3 4 3 6 9 10 8 11 16 20 23 27 29 30 31 29 20 17 22 22 17 12 9 9 10 10 8 6 4 3 2 3 4 3 2 2 3 3 2 1 0 0
0 0 0 0 0 0 2 5 6 3 5 11 14 15 18 23 25 26 28 33 38 40 37 27 20 21 23 21 17 13 13 14 13 11 9 6 2 1 2 4 4 2 1 0 1 1 1 1 1
0 0 0 0 0 0 1 4 6 5 6 14 20 23 27 31 33 33 33 37 44 48 47 39 30 26 26 25 23 20 18 17 15 14 13 9 3 1 2 2 2 1 0 1 2 1 1 2 3
0 0 0 0 0 0 0 3 6 7 9 17 27 34 37 40 45 46 43 44 51 58 58 51 42 35 31 28 26 25 22 20 16 16 16 12 5 2 3 3 3 2 1 2 3 3 2 2 2
0 0 0 0 0 0 0 3 8 9 8 15 28 39 43 48 55 60 56 55 62 69 67 59 52 46 38 32 29 26 25 22 17 16 18 14 9 5 5 6 5 3 3 3 3 3 2 1 1
0 0 0 0 0 0 0 4 10 11 8 12 23 34 43 51 61 68 68 67 71 77 74 66 63 56 44 35 31 28 25 21 17 19 21 19 16 12 8 6 6 4 4 3 3 3 4 3 2
0 0 0 0 0 0 0 3 9 12 11 13 20 27 38 52 64 70 72 72 74 77 78 77 73 62 48 37 31 28 26 21 21 23 25 25 24 19 13 11 11 10 7 5 4 5 7 7 5
0 0 0 0 0 0 0 1 6 10 12 16 20 25 35 50 62 69 72 73 71 71 77 81 79 67 51 38 31 28 25 22 23 26 28 30 29 25 21 19 20 19 14 9 9 10 11 10 8
0 0 0 0 0 0 0 1 3 7 11 16 21 27 36 47 60 69 73 72 69 68 71 76 78 70 55 41 32 28 25 23 24 26 29 32 32 30 27 25 26 25 21 16 15 13 12 11 9
0 0 0 0 0 0 0 1 3 6 8 13 21 30 37 46 60 71 73 71 69 67 67 72 74 69 58 44 34 29 27 26 25 25 27 30 29 30 28 27 28 28 25 20 17 15 13 10 8
0 0 0 0 0 0 0 1 4 7 9 13 20 29 36 45 58 67 70 68 65 65 67 70 70 66 58 48 38 32 29 28 25 25 25 25 24 24 26 27 28 28 25 21 16 15 13 10 8
0 0 0 0 0 0 0 2 6 11 13 15 20 26 35 44 52 60 65 65 63 63 66 67 66 63 57 49 39 32 30 28 26 25 25 24 20 19 21 23 24 24 23 20 17 15 13 10 9
0 0 0 0 0 0 0 1 6 13 16 19 21 26 35 42 48 55 60 63 64 64 65 64 64 61 55 47 38 31 30 30 28 26 26 24 20 17 17 19 21 21 21 20 18 15 12 10 10
0 0 0 0 0 0 0 1 4 10 16 19 23 29 35 39 46 53 59 63 65 64 62 61 61 60 56 50 42 35 32 32 30 28 27 25 21 18 17 18 20 19 17 17 15 13 11 9 9
0 0 0 0 0 0 0 0 2 7 13 17 24 31 36 39 45 53 61 65 66 65 61 59 60 60 57 54 49 40 35 33 30 27 26 25 22 20 20 20 19 16 14 13 12 11 9 8 8

GEFSSGP_con_prob3kmehi_204.txt.gz
EHI
4 2 2 2 1 0 0 0 0 0 0 0 0 0 0 0 0 0 0 0 0 0 1 3 4 3 1 0 0 0 0 0 0 0 0 0 0 0 1 1 1 1 2 2 3 3 2 1 0
2 2 3 2 1 0 0 0 0 1 1 1 0 0 0 0 0 0 0 0 0 0 0 2 3 3 2 1 0 0 0 0 0 0 0 0 0 0 1 2 1 1 1 1 2 2 1 0 0
0 1 3 2 0 0 0 1 2 3 3 1 0 0 0 0 0 0 0 0 0 0 0 1 3 3 2 1 0 0 0 0 0 0 0 0 0 0 1 1 1 0 0 0 1 1 0 0 0
0 1 1 1 0 0 1 2 3 3 2 1 0 0 0 0 0 1 1 0 0 0 0 2 3 4 2 0 0 0 0 0 0 0 0 0 0 0 0 0 0 0 0 0 0 0 0 0 0
1 1 0 0 0 1 2 3 3 3 2 1 1 0 0 1 2 2 2 1 0 0 0 1 3 4 1 0 0 0 0 0 0 0 0 0 0 0 0 0 0 0 0 0 0 0 0 0 0
1 1 0 0 0 1 3 4 4 4 4 3 2 1 1 2 3 3 2 1 1 1 1 1 2 3 2 1 0 0 0 0 0 0 0 0 0 0 0 0 0 0 0 0 0 0 0 0 1
1 0 0 0 0 1 3 4 4 5 5 4 3 2 1 1 2 2 1 0 1 2 2 1 1 2 2 1 0 0 0 0 0 1 1 1 0 0 0 0 0 0 0 0 0 0 0 2 3
0 0 0 0 0 1 2 3 4 4 4 3 3 3 2 2 3 4 2 0 1 1 1 0 0 1 1 1 0 0 0 1 1 1 2 1 0 0 0 0 0 0 1 1 1 0 1 4 5
0 0 0 0 0 1 2 3 3 2 3 3 3 3 4 6 9 8 5 2 1 1 0 0 0 0 0 0 0 0 1 2 2 1 1 1 0 0 0 0 0 1 2 2 2 1 1 3 4
0 0 0 0 0 1 2 3 2 1 2 2 3 5 7 11 13 11 7 5 3 1 0 0 0 0 0 0 0 0 1 2 1 0 0 0 0 0 0 0 0 1 2 2 2 1 0 1 1
0 0 0 0 0 0 1 2 1 0 1 3 5 7 9 12 12 10 7 6 3 1 0 0 1 1 1 1 0 0 1 1 0 0 0 0 0 0 0 0 0 1 1 1 1 0 0 0 0
0 0 0 0 0 0 1 2 1 1 2 3 5 7 8 10 9 7 6 5 4 3 2 2 4 4 4 3 2 1 1 0 0 0 0 0 0 0 0 0 0 0 0 0 0 0 0 0 0
0 0 0 0 0 0 1 2 3 3 4 5 6 6 7 7 7 7 7 7 8 8 8 8 8 7 7 6 5 3 1 1 0 0 0 0 0 0 0 0 0 0 0 0 0 0 0 0 0
0 0 0 0 0 0 0 1 3 6 7 9 10 9 9 10 10 10 10 12 13 13 15 15 12 8 7 7 5 2 1 1 0 0 0 0 0 0 0 0 0 0 0 0 0 0 0 0 0
0 0 0 0 0 0 0 1 4 7 10 13 15 15 15 15 15 14 14 16 17 17 17 18 15 9 7 6 4 2 1 0 0 0 0 0 0 0 0 0 0 0 0 0 0 0 0 0 0
0 0 0 0 0 0 0 1 3 7 11 16 19 19 20 19 18 16 16 18 21 20 18 17 15 10 7 5 4 2 1 0 0 0 1 1 0 0 0 0 0 0 0 0 0 0 0 0 0
0 0 0 0 0 0 0 0 2 6 11 17 20 22 23 22 19 18 20 23 24 22 19 17 13 8 6 4 3 3 2 1 0 1 1 0 0 0 0 0 0 0 0 0 0 0 0 0 0
0 0 0 0 0 0 1 1 2 5 10 16 20 24 25 24 22 24 28 31 29 25 23 20 14 8 5 4 3 3 2 1 0 0 0 0 0 0 0 0 0 0 0 0 0 0 0 0 0
0 0 0 0 0 1 2 2 2 4 8 15 22 27 28 28 28 33 39 41 37 30 26 24 19 14 9 6 4 3 2 1 0 0 0 0 0 0 0 0 0 0 0 0 0 0 0 0 0
0 0 0 0 0 1 2 3 3 3 6 14 23 28 31 33 37 45 50 49 45 38 31 26 24 20 15 11 7 4 2 1 1 1 0 0 0 0 0 0 0 0 0 0 0 0 0 0 0
0 0 0 0 0 0 1 2 3 4 6 12 20 27 33 38 48 56 57 53 51 46 37 29 25 22 18 13 8 6 5 3 2 1 0 0 0 0 0 0 0 0 0 0 0 0 0 0 0
0 0 0 0 0 0 0 1 3 5 8 12 19 27 33 42 53 60 59 56 53 49 42 35 28 21 16 11 8 8 7 5 3 1 0 0 0 0 0 0 0 0 0 0 0 0 0 0 0
0 0 0 0 0 0 0 0 2 7 11 15 21 29 36 43 53 59 59 56 54 52 49 43 32 21 13 9 7 7 6 4 2 0 0 0 0 1 1 1 1 0 0 0 0 0 0 0 0
1 1 0 0 0 0 0 0 1 7 13 18 25 34 39 44 51 55 55 56 57 57 55 48 35 22 13 9 7 6 4 3 1 0 0 0 1 2 2 3 3 2 1 2 1 1 1 1 0
0 0 0 0 0 0 0 0 2 6 11 19 29 37 41 46 50 52 53 55 58 59 57 49 37 25 17 13 9 7 5 4 2 1 0 0 2 3 3 5 7 6 3 2 2 2 2 2 1
0 0 0 0 0 0 0 1 3 6 11 21 32 39 43 47 50 53 54 55 56 57 54 48 38 29 22 17 13 10 9 6 4 2 0 0 1 3 4 6 9 8 4 2 2 3 3 2 1
0 0 0 0 0 0 0 2 6 10 17 28 36 40 44 47 51 56 57 55 53 52 50 46 38 31 27 22 17 15 13 10 7 5 2 0 1 2 4 5 6 5 3 2 2 3 3 2 1
0 0 0 0 0 0 0 2 6 13 23 33 38 40 45 48 51 57 58 54 51 49 47 44 39 34 28 25 21 17 16 13 10 7 4 3 3 3 3 3 2 2 3 3 3 3 3 2 1
0 0 0 0 0 0 0 0 4 12 22 32 36 38 42 46 48 54 56 53 50 49 47 44 40 35 30 27 22 18 16 14 11 8 7 7 6 5 3 3 2 2 3 3 3 3 3 3 2
0 0 0 0 0 0 0 0 2 9 20 31 34 35 41 43 44 50 53 51 49 49 48 44 41 36 32 28 23 18 14 12 9 8 9 10 8 5 5 4 3 3 3 2 2 3 4 3 3

GEFSSGP_con_prob3kmehi_210.txt.gz
EHI
4 2 1 0 0 0 0 0 0 0 0 0 0 0 0 0 0 0 0 0 0 0 0 0 0 0 0 0 1 0 0 0 0 0 0 1 2 2 1 0 0 0 0 0 0 0 0 0 0
1 1 0 0 0 0 0 0 0 0 0 0 0 0 0 0 0 0 0 0 0 0 0 0 0 0 0 1 1 1 0 0 0 0 0 0 1 1 0 0 0 0 0 0 0 0 0 0 0
0 0 0 0 0 0 0 0 0 1 1 0 0 0 0 0 0 0 0 0 0 0 0 1 1 1 0 1 1 1 0 0 0 0 0 0 0 0 0 0 0 0 0 1 1 1 0 0 0
0 0 0 0 0 0 0 0 1 2 2 1 0 0 0 0 0 0 0 0 0 0 0 1 1 1 0 0 0 0 0 0 0 0 0 0 0 0 0 0 0 0 0 1 1 1 0 0 0
0 0 0 0 0 0 0 0 2 3 3 2 1 0 0 0 0 0 0 0 0 0 0 0 0 0 0 0 0 0 0 0 0 0 0 0 0 0 0 0 0 0 0 0 0 0 0 0 0
0 0 0 0 0 0 0 0 2 3 3 3 2 1 0 0 0 0 0 0 0 0 0 0 0 0 0 0 0 0 0 0 0 0 0 0 0 0 0 0 0 0 0 0 0 0 0 0 0
0 0 0 0 0 0 0 0 1 2 3 3 3 2 1 1 1 1 0 0 0 0 0 0 0 0 0 0 0 0 0 0 0 0 0 0 0 0 0 0 0 0 0 0 0 0 0 0 0
0 0 0 0 0 0 0 0 1 1 2 2 3 3 2 2 2 1 0 0 0 0 0 0 0 0 0 0 0 0 0 1 0 0 0 0 0 0 0 0 0 0 0 0 0 0 0 0 0
0 0 0 0 0 0 0 0 1 2 2 1 1 2 2 2 2 1 0 0 0 0 0 0 0 0 0 0 0 0 0 0 0 0 0 0 0 0 0 0 0 0 0 0 0 1 1 0 0
0 0 0 0 0 0 0 1 1 2 1 1 0 2 4 3 2 1 0 0 0 0 0 0 1 1 1 1 1 0 0 0 0 0 0 0 0 0 0 0 0 0 0 0 0 1 1 0 0
0 0 0 0 0 0 0 1 1 1 0 0 0 2 6 5 2 0 0 0 0 0 0 0 1 2 2 2 1 0 0 0 0 0 0 0 0 0 0 0 0 0 0 0 0 0 0 0 0
0 0 0 0 0 0 0 0 0 0 0 0 0 3 6 5 2 0 0 0 0 0 0 0 1 1 1 1 1 0 0 0 0 0 0 0 0 0 0 0 0 0 0 0 0 0 0 0 0
0 0 0 0 0 0 0 0 0 0 1 2 2 3 5 4 1 0 0 0 0 0 0 0 0 0 1 1 0 0 0 0 0 0 0 0 0 0 0 0 0 0 0 0 0 0 0 0 0
0 0 0 0 0 0 0 0 0 1 2 4 4 3 3 2 0 0 0 0 0 0 0 0 0 0 1 2 1 0 0 0 0 0 0 0 0 0 0 0 0 0 0 0 0 0 0 0 0
0 0 0 0 0 0 0 0 0 1 2 2 3 3 2 0 0 0 0 0 0 0 0 0 0 1 2 2 1 0 0 0 0 0 0 0 0 0 0 0 0 0 0 0 0 0 0 0 0
0 0 0 0 0 0 0 0 0 1 1 1 2 3 2 1 0 0 0 0 0 0 0 0 1 2 3 3 2 1 0 0 0 0 0 0 0 0 0 0 0 0 0 0 0 0 0 0 0
0 0 0 0 0 0 0 0 0 0 0 1 2 4 4 2 0 0 0 0 0 0 1 1 2 3 3 3 3 2 1 0 0 0 0 0 0 0 0 0 0 0 0 0 0 0 0 0 0
0 0 0 0 0 0 0 0 0 0 0 1 2 5 7 5 2 2 2 3 2 2 3 3 4 4 3 3 3 3 2 1 0 0 0 0 0 0 0 0 0 0 0 0 0 0 0 0 0
0 0 0 0 0 0 0 0 0 0 0 1 3 6 9 8 5 5 8 7 6 6 6 6 6 5 4 3 3 3 2 1 0 0 0 0 0 0 0 0 0 0 0 0 0 0 0 0 0
0 0 0 0 0 0 0 0 0 1 1 2 4 7 10 11 9 9 11 11 10 9 8 7 8 7 5 3 3 1 1 1 0 0 0 0 0 0 0 0 0 0 0 0 0 0 0 0 0
0 0 0 0 0 0 0 0 0 1 3 4 4 7 11 12 11 11 12 12 12 12 10 9 9 8 6 4 3 1 0 0 0 0 0 0 0 0 0 0 0 0 0 0 0 0 0 0 0
0 0 0 0 0 0 0 0 0 1 2 3 4 6 9 11 11 12 13 14 14 15 13 11 9 8 7 5 3 1 0 0 0 0 0 0 0 0 0 0 0 0 0 0 0 0 0 0 0
0 0 0 0 0 0 0 0 0 0 1 3 4 6 9 10 11 12 14 15 16 17 15 12 9 8 7 5 3 2 1 0 0 0 0 0 0 0 0 0 0 0 0 0 0 0 0 0 0
0 0 0 0 0 0 0 0 0 0 1 4 7 9 10 11 12 13 14 15 17 17 14 12 9 7 6 5 4 3 2 1 1 0 0 0 0 0 0 0 0 0 0 0 0 0 0 0 0
0 0 0 0 0 0 0 0 0 0 2 6 10 12 12 12 13 14 14 16 18 18 14 11 8 5 5 4 4 3 3 3 2 1 0 0 0 0 0 0 0 0 0 0 0 0 0 0 0
0 0 0 0 0 0 0 0 0 1 3 7 12 14 13 12 13 16 16 17 19 20 17 13 9 5 4 5 4 3 3 3 3 2 1 0 0 0 0 0 0 0 0 0 0 0 0 0 0
0 0 0 0 0 0 0 0 0 2 4 8 14 15 14 12 13 16 19 19 20 21 20 17 12 8 7 6 4 3 3 3 3 3 2 1 0 0 0 0 0 0 0 0 0 0 0 0 0
0 0 0 0 0 0 0 0 0 1 3 8 12 15 15 14 14 16 19 20 19 18 19 20 18 13 9 7 5 4 3 3 3 3 3 2 1 0 1 1 0 0 0 0 0 0 0 0 0
0 0 0 0 0 0 0 0 0 1 3 7 10 12 14 15 15 16 18 18 15 15 17 21 21 16 12 9 7 5 4 4 3 3 3 2 1 0 1 1 0 0 0 0 0 0 0 0 1
0 0 0 0 0 0 0 0 0 1 4 7 8 9 11 12 14 16 17 17 14 14 17 22 22 17 14 12 9 7 6 5 4 3 3 1 0 0 0 1 0 0 1 1 1 0 0 1 1

GEFSSGP_con_prob3kmehi_216.txt.gz
EHI
11 10 9 5 2 0 0 0 0 0 0 0 0 0 0 0 0 0 0 0 0 0 0 0 0 0 0 0 0 0 0 0 0 0 0 0 0 0 0 0 0 0 0 0 0 0 0 0 0
11 10 7 3 1 0 0 0 0 0 0 0 0 0 0 0 0 0 0 0 0 0 0 0 0 0 0 0 0 0 0 0 0 0 0 0 0 0 0 0 0 0 0 0 0 0 0 0 0
10 8 4 1 0 0 0 0 0 0 0 0 0 0 0 0 0 0 0 0 0 0 0 0 0 0 0 0 0 0 0 1 1 0 0 0 0 0 1 1 0 0 0 0 0 0 0 0 0
7 4 1 0 0 0 0 0 0 0 0 0 0 0 0 0 0 0 0 0 0 0 0 0 0 0 0 0 0 0 0 1 1 0 0 0 0 0 1 1 0 0 0 0 0 0 0 0 0
4 2 0 0 0 0 0 0 0 0 0 0 0 0 0 1 1 0 0 0 0 0 0 0 0 0 0 0 0 0 0 1 1 0 0 0 0 0 0 0 0 0 0 0 0 0 0 0 0
1 0 0 0 0 0 0 0 0 0 0 0 0 0 1 2 2 1 0 0 0 0 0 0 0 0 0 0 0 0 0 0 0 0 0 0 0 0 0 0 0 0 0 0 0 0 0 0 0
0 0 0 0 0 0 0 0 0 0 0 0 0 0 1 3 2 1 0 0 0 0 0 0 0 0 0 0 0 0 0 0 0 0 0 0 0 0 0 0 0 0 0 0 0 0 0 0 0
0 0 0 0 0 0 0 0 0 0 0 0 0 0 2 3 2 0 0 0 0 0 0 0 0 0 0 0 0 0 0 0 0 0 1 1 1 0 0 0 0 0 0 0 0 0 0 0 0
0 0 0 0 0 0 0 0 0 0 0 0 0 0 2 3 2 1 0 0 0 0 0 0 0 0 0 0 0 0 0 0 0 0 1 1 1 0 0 0 0 0 0 0 0 0 1 1 0
0 0 0 0 0 0 0 0 0 0 0 0 0 1 2 3 3 2 1 0 1 0 0 0 0 0 0 0 0 0 0 0 0 0 1 1 0 0 0 0 0 0 0 0 0 0 1 1 1
0 0 0 0 0 0 0 0 0 0 0 0 1 2 3 4 3 2 1 0 0 0 0 0 0 0 0 0 0 0 0 0 0 0 0 0 0 0 0 0 0 0 0 0 0 0 1 1 0
0 0 0 0 0 0 0 0 0 0 0 0 1 3 4 4 4 2 1 0 0 0 0 0 0 0 1 1 1 0 1 2 2 1 0 0 0 0 0 0 0 0 0 0 0 0 0 0 0
0 0 0 0 0 0 0 0 0 0 0 1 3 4 4 4 3 2 1 0 0 0 0 1 1 3 5 5 4 2 3 4 4 2 1 0 0 0 0 0 0 0 0 0 0 0 0 0 0
0 0 0 0 0 0 0 0 0 0 0 1 3 4 4 3 3 2 1 0 1 1 1 2 4 6 8 8 6 4 4 4 4 3 1 0 0 0 0 0 0 0 0 0 0 0 0 0 0
0 0 0 0 0 0 0 0 0 0 0 1 3 4 3 3 3 2 1 1 2 2 1 2 4 7 9 9 6 4 4 4 3 3 1 0 0 0 0 0 0 0 0 0 0 0 0 0 0
0 0 0 0 0 0 0 0 0 0 0 1 3 3 3 3 3 2 2 2 2 2 1 1 3 6 9 9 7 5 4 4 3 3 2 1 0 0 0 0 0 0 0 0 0 0 0 0 0
0 0 0 0 0 0 0 0 0 0 0 1 3 4 3 3 3 2 3 2 1 1 1 2 4 7 9 10 8 6 5 4 4 3 3 1 0 0 0 0 0 0 0 0 0 0 0 0 0
0 0 0 0 0 0 0 0 0 1 1 2 3 5 4 3 2 2 2 1 2 3 5 6 7 9 10 10 9 6 5 4 3 3 3 2 0 0 0 0 0 0 0 0 1 1 1 0 0
0 0 0 0 0 0 0 0 1 3 4 3 4 6 6 4 2 2 4 4 6 10 13 11 10 11 12 10 9 7 5 4 3 3 2 1 0 0 0 0 0 0 1 1 1 2 2 1 0
0 0 0 0 0 0 0 0 1 3 4 4 5 6 7 7 5 6 8 10 13 17 18 15 14 15 14 11 9 8 5 4 3 1 1 0 0 0 0 0 0 1 2 2 3 3 2 1 1
0 0 0 0 0 0 0 0 1 1 3 4 5 7 9 10 10 11 13 15 18 21 20 18 18 19 17 13 10 7 5 4 2 1 1 1 0 1 1 1 1 1 2 3 3 2 2 3 4
0 0 0 0 0 0 0 0 1 1 2 4 6 8 11 12 13 14 17 20 23 23 22 21 23 24 22 17 12 9 6 4 3 3 3 3 1 1 2 3 3 3 3 4 4 2 3 4 5
0 0 0 0 0 0 0 0 1 1 1 3 6 8 11 14 15 16 18 22 23 22 22 24 27 29 29 24 17 13 9 7 5 4 4 4 3 2 2 3 4 5 5 6 6 5 5 6 5
0 0 0 0 0 0 0 0 0 0 0 1 4 7 12 16 17 17 18 21 23 22 21 24 30 35 34 29 22 17 15 12 8 6 5 4 3 2 2 3 3 4 6 7 8 7 6 6 6
0 0 0 0 1 0 0 0 0 0 0 1 3 7 12 16 18 18 20 23 26 26 25 26 33 37 35 30 24 20 17 14 10 7 5 3 3 4 4 4 4 5 5 6 7 7 6 7 7
0 0 0 0 0 0 0 0 0 0 1 2 5 8 13 17 19 20 22 26 29 30 29 30 36 39 36 32 28 22 17 12 9 7 5 3 3 5 6 6 7 7 5 5 5 6 7 8 10
0 0 0 0 0 0 0 0 0 1 2 4 7 11 15 20 21 20 23 27 29 31 31 33 39 41 38 35 32 24 16 10 8 7 5 4 4 4 5 6 7 6 5 4 5 6 7 9 11
0 0 0 0 0 0 0 0 1 3 4 6 10 15 19 22 23 22 24 27 28 31 32 33 38 41 39 38 34 26 18 13 12 10 8 6 5 5 5 6 7 6 4 4 5 5 6 9 11
0 0 0 0 0 0 0 0 2 5 7 8 11 16 19 21 25 28 30 30 29 31 32 32 35 38 38 37 35 30 24 20 17 13 10 9 9 8 8 8 8 7 6 5 4 4 5 6 6
0 0 0 0 0 0 0 1 3 7 8 9 11 15 17 20 27 34 37 34 30 31 33 33 35 37 37 37 36 32 28 25 20 14 10 11 11 10 10 10 9 9 8 6 4 4 4 3 2

GEFSSGP_con_prob3kmehi_222.txt.gz
EHI
7 15 33 40 26 7 0 0 0 0 0 0 0 0 0 0 0 0 0 0 0 0 0 0 0 0 0 0 0 0 0 0 0 0 0 0 1 1 1 0 0 0 0 0 0 0 0 1 1
9 20 34 33 17 4 0 0 0 0 0 0 0 0 0 0 0 0 0 0 0 0 0 0 0 0 0 0 0 0 0 0 0 0 0 0 0 1 1 1 0 0 0 0 0 0 0 0 1
18 26 31 21 8 1 0 0 0 0 0 0 0 0 0 0 0 0 0 0 0 0 0 0 0 0 0 0 0 0 0 0 0 0 0 0 0 1 2 1 0 0 0 0 0 0 0 0 0
30 29 21 9 2 0 0 0 0 0 0 0 0 0 0 0 0 0 0 0 0 0 0 0 0 0 0 0 0 0 0 0 0 0 0 0 0 1 2 1 0 0 0 0 0 0 0 0 0
33 24 10 2 0 0 0 0 0 0 0 0 0 0 0 0 0 0 1 1 1 0 0 1 1 0 0 0 0 0 0 0 0 0 0 1 0 0 0 0 0 0 0 0 0 0 0 0 0
22 13 3 0 0 0 0 0 0 0 0 0 0 1 1 1 0 0 1 1 1 0 1 2 2 1 0 0 0 0 0 0 0 0 0 0 0 0 0 0 0 0 0 0 0 0 0 0 0
10 5 1 0 0 0 0 0 1 0 0 0 0 1 2 2 1 0 0 0 0 1 2 2 2 2 2 1 1 1 1 1 1 1 1 1 1 0 0 0 0 0 0 0 0 0 0 0 0
3 2 0 0 0 0 0 0 0 0 0 0 0 1 3 2 1 0 0 0 0 0 1 1 3 5 4 3 3 3 3 3 3 3 4 3 2 1 1 1 0 0 0 0 0 1 1 1 1
1 0 0 0 0 0 0 0 0 0 0 0 1 2 3 3 1 0 0 0 0 0 0 0 3 4 4 4 6 6 5 5 5 6 6 4 2 1 2 2 1 1 1 2 2 3 3 2 2
0 0 0 0 0 0 0 0 0 0 0 0 1 2 3 3 2 1 0 0 0 0 0 0 1 2 2 3 6 7 5 6 6 6 6 4 1 1 2 3 3 3 4 4 5 5 4 3 2
0 0 0 0 0 0 0 0 0 0 0 0 1 1 2 3 2 1 1 1 0 0 0 0 1 3 3 3 4 4 5 5 5 4 4 3 1 0 1 3 3 3 4 4 4 5 4 2 1
0 0 0 0 0 0 0 0 0 0 0 0 0 1 2 3 3 3 3 2 1 1 1 2 4 8 11 10 7 5 4 4 4 4 4 4 2 1 1 2 3 3 2 2 3 3 3 2 1
0 0 0 0 0 0 0 0 0 0 0 0 0 1 2 3 4 5 6 6 5 3 2 3 8 12 15 16 14 8 4 3 4 5 6 5 3 1 1 4 4 2 1 1 2 2 2 2 2
0 0 0 0 0 0 0 0 0 0 0 0 0 1 2 2 4 7 9 11 11 7 5 6 9 11 13 15 15 10 5 3 5 7 8 6 3 1 1 4 4 1 0 0 1 3 2 1 1
0 0 0 0 0 0 0 0 0 0 0 0 0 1 2 3 4 7 10 13 14 12 11 9 9 10 10 10 10 7 4 5 7 9 10 8 5 3 3 3 2 1 0 0 0 1 1 0 0
0 0 0 0 0 0 0 0 0 0 0 0 0 1 4 6 6 8 12 15 17 18 18 13 10 13 14 10 7 5 5 6 8 9 10 10 8 6 5 3 2 2 1 1 0 0 0 0 0
0 0 0 0 0 0 0 0 0 0 1 1 1 3 7 10 9 11 14 17 21 25 25 17 13 17 19 16 11 7 6 7 8 10 11 12 9 6 4 4 4 4 3 2 2 3 3 2 1
0 0 0 0 0 0 0 0 0 1 2 3 4 6 12 15 15 16 18 21 26 32 34 28 24 25 25 22 18 12 8 9 10 12 14 14 11 8 5 5 6 5 3 4 6 9 9 5 3
0 0 0 0 0 0 0 0 1 1 2 4 6 10 17 22 24 26 27 29 34 41 45 41 38 37 33 27 24 19 13 11 13 16 18 16 14 11 8 7 9 8 5 6 10 12 9 5 4
0 0 0 0 0 1 1 1 2 2 2 3 6 12 19 26 33 39 40 39 43 48 52 50 48 45 40 33 28 24 17 14 15 21 24 20 15 13 11 11 11 10 8 9 12 12 8 4 3
0 0 0 0 0 1 1 1 2 2 1 1 4 11 18 26 37 47 50 48 47 51 54 54 54 50 44 37 31 25 21 18 19 26 29 24 16 12 12 13 12 10 10 12 13 12 10 6 3
0 0 0 0 0 0 0 0 1 1 0 1 3 8 15 24 35 47 53 53 51 51 54 59 60 54 47 40 33 28 25 23 24 27 31 26 17 11 11 12 11 10 9 10 10 11 11 9 6
0 0 0 0 0 0 0 0 0 0 1 1 2 6 12 21 32 43 50 54 52 51 55 63 66 61 53 46 39 32 28 26 25 27 29 27 20 14 12 14 13 9 7 7 7 8 10 10 8
0 0 0 0 0 0 0 0 0 1 1 1 2 6 12 21 32 42 49 53 52 49 53 63 68 66 60 52 44 35 28 26 25 25 26 25 22 20 19 19 17 12 8 8 8 8 8 9 9
0 0 0 0 0 0 0 0 0 1 1 1 3 7 13 22 33 44 52 55 53 49 54 64 70 68 62 55 46 38 32 29 27 25 23 21 21 23 23 22 20 14 10 10 11 10 9 10 12
0 0 0 0 0 0 0 0 0 1 1 2 4 9 16 24 33 44 53 56 55 55 62 72 76 70 62 55 48 43 40 34 29 26 23 20 18 20 22 22 18 14 11 11 11 11 11 13 14
0 0 0 0 0 0 0 0 1 1 2 3 5 10 17 25 33 40 47 52 55 62 71 79 81 75 67 60 54 49 46 41 35 31 28 25 21 19 19 19 16 14 12 12 11 11 12 13 14
0 0 0 0 0 0 0 1 1 1 2 2 5 10 17 24 30 36 40 46 54 64 74 80 82 78 72 67 60 55 53 49 44 39 36 33 28 23 19 18 17 15 13 12 11 10 11 12 12
0 0 0 0 0 0 0 1 1 2 2 3 6 11 17 23 29 36 41 46 55 64 73 79 81 78 74 69 65 62 61 58 52 47 42 37 32 26 22 20 19 16 13 12 10 8 8 9 10
0 0 0 0 0 0 0 1 1 2 3 5 9 14 18 23 31 40 47 51 57 64 72 79 80 78 73 70 68 67 66 63 57 49 42 37 32 28 25 23 20 15 14 13 9 7 7 8 8

GEFSSGP_con_prob3kmehi_228.txt.gz
EHI
9 5 3 2 1 0 0 0 0 0 0 0 0 0 0 0 0 0 0 0 0 0 0 0 0 0 0 0 0 0 0 1 1 2 1 0 0 0 0 0 0 0 0 0 0 0 0 0 0
4 3 2 1 0 0 0 0 0 0 0 0 0 0 0 0 0 0 0 0 0 0 0 0 0 0 0 0 0 0 1 1 2 2 2 1 0 0 0 0 0 0 0 0 0 0 0 0 0
2 2 1 0 0 0 0 0 0 0 0 0 0 0 0 0 0 0 0 0 0 0 0 0 0 0 0 0 0 1 1 2 2 2 2 1 1 1 0 0 0 1 0 0 0 0 0 0 0
5 4 2 0 0 0 0 0 0 0 0 1 1 1 0 1 1 0 0 0 0 0 0 1 2 1 0 0 1 2 3 1 1 1 1 1 2 2 1 1 1 1 0 0 0 0 0 0 0
6 5 2 0 0 0 0 0 0 1 1 2 2 1 1 1 2 1 1 0 0 0 0 1 3 2 0 0 0 2 3 2 1 0 0 1 2 3 3 2 1 0 0 0 0 0 0 0 0
6 4 1 0 0 0 0 0 0 1 2 2 2 1 0 1 1 1 0 0 0 0 0 1 2 2 1 0 0 1 2 2 1 1 1 1 3 4 4 2 1 0 0 1 1 0 0 0 0
5 2 0 0 0 0 0 0 0 1 1 1 1 0 0 0 0 0 0 0 0 0 0 0 1 1 0 0 0 1 2 2 2 3 2 2 2 3 4 2 1 0 0 1 1 1 1 1 0
3 1 0 0 0 0 0 0 0 0 0 0 0 0 0 0 0 0 0 1 0 0 0 0 0 0 0 0 1 2 2 2 3 3 2 1 1 1 2 2 1 1 1 1 2 2 3 3 2
1 0 0 0 0 0 0 0 0 0 0 0 0 0 1 1 1 1 1 1 0 0 0 0 0 0 0 0 1 2 3 2 2 1 0 0 0 0 0 1 2 3 3 3 3 4 5 5 4
0 0 0 0 0 0 0 0 0 0 0 0 0 0 1 2 2 2 2 1 0 0 0 0 0 0 0 0 1 1 2 1 0 0 0 0 0 0 0 0 2 3 3 3 4 4 5 4 4
0 0 0 0 0 0 0 0 0 1 1 1 1 1 0 1 1 2 2 1 0 1 1 0 0 0 0 0 0 0 0 0 0 0 0 0 0 0 0 0 1 1 1 1 1 2 2 2 2
0 0 0 0 0 0 0 0 0 1 2 2 2 2 1 0 0 1 1 1 1 2 3 2 1 1 2 2 1 0 0 0 0 0 0 0 0 0 0 0 0 0 0 0 0 0 0 0 1
0 0 0 0 0 0 0 0 0 1 3 3 3 3 2 1 1 1 1 2 3 5 5 5 4 4 4 3 1 0 0 0 0 0 0 0 0 0 0 0 0 0 0 0 0 0 0 0 0
0 0 0 0 0 0 0 0 0 2 3 2 2 2 3 4 5 4 4 5 6 7 7 8 7 6 5 3 1 0 0 1 1 1 0 0 0 0 0 0 0 0 0 0 0 0 0 0 0
0 0 0 0 0 0 0 0 0 1 2 1 1 3 5 6 8 8 8 7 7 8 7 7 8 6 5 3 2 1 1 1 2 2 1 0 0 0 0 0 0 0 0 0 0 0 0 0 0
0 0 0 0 0 0 0 0 1 2 2 1 2 4 7 8 10 11 11 12 11 10 8 6 6 5 4 4 3 2 2 2 4 4 3 1 1 0 0 0 0 0 0 0 0 0 0 0 0
0 0 0 0 0 0 0 0 1 2 3 3 4 7 9 12 13 14 15 16 15 14 10 6 5 5 4 4 4 3 3 4 5 5 4 3 2 1 0 0 0 0 0 0 0 0 0 0 0
0 0 0 0 0 0 0 0 1 2 4 6 7 8 10 13 16 18 19 19 18 16 11 8 7 7 6 5 4 3 4 6 6 5 4 3 3 1 0 0 0 0 0 0 0 0 0 0 0
0 0 0 0 0 0 0 0 1 2 5 9 10 9 9 11 16 20 21 21 19 17 12 10 9 9 7 7 6 4 4 6 7 6 4 3 3 3 1 0 0 0 0 0 0 0 0 0 0
0 0 0 0 1 0 0 0 0 1 4 9 11 11 10 12 18 23 25 24 23 21 16 14 14 13 11 9 7 5 4 5 6 6 5 4 4 4 2 1 0 0 0 0 0 0 0 0 0
0 0 0 0 0 0 0 0 0 1 4 8 10 11 13 17 22 27 28 29 30 28 23 20 21 22 18 12 9 7 6 5 5 5 5 5 5 4 3 1 1 1 1 0 0 0 0 0 0
0 0 0 0 0 0 0 0 0 1 5 8 9 10 14 20 25 29 32 36 37 34 29 26 26 27 25 19 14 11 9 6 4 4 5 5 5 4 4 3 2 3 3 1 1 0 0 0 0
0 0 0 0 0 0 0 0 0 1 4 7 9 11 16 22 26 28 33 39 40 37 32 29 29 30 28 24 19 15 12 7 4 4 4 4 4 5 6 5 5 5 5 4 3 1 1 1 1
0 0 0 0 0 0 0 0 0 1 2 5 8 11 16 22 25 26 30 37 43 43 39 34 34 33 30 25 21 17 14 10 8 7 5 4 5 5 7 7 7 6 6 6 5 3 2 2 2
0 0 0 0 0 0 0 0 0 1 2 3 7 11 16 20 22 23 26 34 44 49 47 44 41 37 33 28 22 19 17 15 13 12 9 7 6 6 7 7 6 6 6 8 8 5 4 3 3
0 0 0 0 0 0 0 0 1 3 4 5 8 13 17 20 20 20 23 32 44 51 52 51 47 42 37 33 27 22 19 18 17 15 12 9 6 6 5 5 4 4 6 8 9 7 5 4 4
0 0 0 0 0 0 0 1 3 5 7 8 11 15 19 22 23 23 23 28 40 48 50 52 51 45 41 38 33 26 21 20 20 18 13 8 5 5 4 3 3 4 6 8 9 8 7 5 5
0 0 0 0 0 0 0 1 3 4 7 9 12 15 21 25 27 27 26 27 32 42 49 53 52 47 43 41 37 31 26 24 23 20 14 8 5 6 6 5 4 6 7 8 8 8 6 5 5
0 0 0 0 0 0 0 1 3 5 7 9 11 15 23 28 29 29 29 29 31 40 51 55 53 50 46 42 39 36 32 28 23 18 15 10 7 7 8 7 5 5 5 5 5 5 5 4 4
0 0 0 0 0 0 1 2 3 5 8 10 11 16 25 30 30 30 31 32 34 41 51 57 55 51 48 43 40 39 38 31 22 17 15 13 9 8 8 7 4 4 3 3 4 4 4 3 3

GEFSSGP_con_prob3kmehi_234.txt.gz
EHI
8 3 0 0 0 0 0 0 0 0 0 0 0 0 0 0 0 0 0 0 0 0 0 0 0 0 0 0 0 0 0 0 0 0 0 0 0 1 1 1 0 0 0 0 0 0 0 0 0
5 2 0 0 0 0 0 0 0 0 0 0 0 0 0 0 0 0 0 0 0 0 0 0 0 0 0 0 0 0 0 0 0 0 0 0 0 0 1 1 0 0 0 0 0 0 0 0 0
1 0 0 0 0 0 0 0 0 0 0 0 0 0 0 0 0 0 0 0 0 0 0 1 1 1 1 1 1 1 0 0 0 0 0 0 0 1 2 1 0 0 0 0 0 0 0 0 0
0 0 0 0 0 0 0 0 0 0 0 0 0 0 0 0 0 0 0 0 0 0 0 1 2 3 2 2 2 2 1 1 1 0 0 0 0 1 1 1 0 0 0 0 0 0 0 0 0
0 0 0 0 0 0 0 0 0 0 0 0 0 0 0 0 0 0 0 0 0 0 0 1 2 3 3 3 3 3 3 3 2 1 0 0 0 0 0 0 0 0 0 0 0 0 0 0 0
0 0 0 0 0 0 0 0 0 0 0 0 0 0 0 0 0 0 0 0 0 0 0 0 1 1 2 1 1 3 4 5 4 2 1 1 1 0 0 0 0 1 0 0 0 0 0 0 0
0 0 0 0 0 0 0 0 0 0 0 0 0 0 0 0 0 0 0 0 0 0 0 0 0 0 0 0 1 2 3 5 5 3 1 2 1 0 0 0 0 0 0 0 0 0 0 0 0
0 0 0 0 0 0 0 0 0 0 0 0 0 0 0 0 0 0 0 0 0 0 0 0 0 0 0 0 1 2 2 3 4 2 1 1 1 0 0 0 0 0 0 0 0 0 0 0 0
0 0 0 0 0 0 0 0 0 0 0 0 0 0 0 0 0 0 0 0 0 0 0 0 0 0 0 0 1 1 0 1 1 1 0 0 0 0 0 0 0 0 1 1 0 0 0 0 0
0 0 0 0 0 0 0 0 0 0 0 0 0 0 0 0 0 0 0 0 0 0 0 0 0 0 0 0 0 0 0 0 0 0 0 0 0 0 0 0 0 1 1 1 0 0 0 0 0
1 0 0 0 0 0 0 0 0 0 0 0 0 0 0 0 0 0 0 0 0 0 0 0 0 0 0 0 0 0 0 0 0 0 0 0 0 0 0 0 0 1 1 1 0 0 0 0 0
1 0 0 0 0 0 0 0 0 0 0 0 0 0 0 0 0 0 0 0 0 1 1 0 0 0 0 0 0 0 0 0 0 0 0 0 0 0 0 0 0 0 0 0 0 0 0 0 0
1 0 0 0 0 0 0 0 0 0 0 0 0 0 0 0 0 0 0 0 1 2 1 0 0 0 0 0 0 0 0 0 0 0 0 0 0 0 0 0 0 0 0 0 0 0 0 0 0
0 0 0 0 0 0 0 0 0 0 0 0 0 0 0 0 0 0 0 1 2 2 1 1 1 1 1 0 0 0 0 0 0 0 0 0 0 0 0 0 0 0 0 0 0 0 0 0 0
0 0 0 0 0 0 0 0 0 0 0 0 0 0 0 0 0 0 0 1 2 1 1 3 3 3 2 1 0 0 0 0 0 0 0 0 0 0 0 0 0 0 0 0 0 0 0 0 0
0 0 0 0 0 0 0 0 0 0 0 0 0 0 0 0 0 0 0 1 1 1 2 4 4 4 3 2 1 0 0 0 0 0 0 0 0 0 0 0 0 0 0 0 0 0 0 0 0
0 0 0 0 0 0 0 0 1 1 1 0 0 0 0 0 0 0 0 0 0 1 3 4 4 3 3 3 1 0 0 0 0 0 0 0 0 0 0 0 0 0 0 0 0 0 0 0 0
0 0 0 0 0 0 0 0 1 1 1 0 0 0 1 1 1 0 0 0 1 2 3 4 3 3 3 3 2 1 1 0 0 0 0 0 0 0 0 0 0 0 0 0 0 0 0 0 0
0 0 0 0 0 0 0 0 0 1 2 1 0 1 2 2 2 2 2 2 3 3 4 4 4 4 3 3 3 2 1 0 0 0 0 1 0 0 0 0 0 0 0 0 0 0 0 0 0
0 0 0 0 0 0 0 0 0 1 2 1 1 1 2 3 3 3 4 5 5 4 4 4 5 4 4 4 3 3 1 0 0 0 0 0 0 0 0 0 0 0 0 0 0 0 0 0 0
0 0 0 0 0 0 0 0 0 0 1 1 1 1 2 2 2 3 5 6 5 5 5 4 4 4 4 5 4 3 1 0 0 0 0 0 0 0 0 0 0 0 0 0 0 0 0 0 0
0 0 0 0 0 0 0 0 0 0 0 0 1 2 3 3 3 4 5 6 7 7 6 5 4 3 4 6 5 3 1 0 0 0 0 0 0 0 0 0 1 1 1 1 0 0 1 1 1
0 0 0 0 0 0 0 0 0 0 0 0 1 2 3 4 4 5 6 8 9 9 8 6 4 4 5 5 5 3 1 0 0 0 0 0 0 0 0 0 1 2 3 2 1 1 2 2 2
0 0 0 0 0 0 0 0 0 0 0 0 1 1 1 3 4 6 8 10 12 11 9 6 4 3 3 3 4 4 3 2 1 0 0 0 0 0 0 0 1 3 5 4 3 3 3 3 3
0 0 0 0 0 0 0 0 0 0 0 1 1 1 1 2 5 8 11 13 13 12 10 7 5 5 4 3 5 6 6 5 4 2 1 0 0 0 0 0 1 3 5 5 5 5 4 3 3
0 0 0 0 0 0 0 0 0 0 1 2 2 2 3 4 6 8 11 14 14 12 9 7 7 8 8 8 8 8 7 7 6 4 3 1 1 0 0 0 1 2 3 4 4 4 3 2 2
0 0 0 0 0 0 0 0 0 0 2 3 4 4 5 6 7 8 10 12 12 11 8 6 7 9 12 14 14 12 9 8 8 8 6 4 3 2 1 0 0 1 1 2 2 2 1 1 1
0 0 0 0 0 0 0 0 0 0 1 4 5 6 7 8 8 8 9 10 10 10 8 7 7 11 15 17 17 15 12 11 13 12 10 8 6 5 3 1 0 0 0 1 1 1 1 1 1
0 0 0 0 0 0 0 0 1 1 2 5 7 8 9 10 9 7 8 10 9 9 9 9 10 12 16 19 20 19 16 16 17 15 12 9 7 5 4 2 1 0 0 1 1 2 2 2 2
0 0 0 0 0 0 0 1 2 2 3 5 7 10 11 11 8 7 10 11 10 9 9 10 11 13 17 21 22 22 21 20 19 16 13 10 7 5 4 2 1 0 1 2 2 3 3 3 3

GEFSSGP_con_prob3kmehi_240.txt.gz
EHI
8 5 3 2 2 1 0 0 0 0 0 0 0 0 0 0 0 0 0 0 0 0 0 1 2 3 2 1 1 0 0 0 0 0 0 0 0 0 0 0 0 0 0 0 0 0 0 0 0
5 3 3 3 1 0 0 0 0 0 0 0 0 0 0 0 0 0 0 0 0 0 0 1 2 2 2 2 2 1 0 0 0 0 0 0 0 0 0 0 0 0 0 0 0 0 0 0 0
5 4 4 3 1 0 0 0 0 0 0 0 0 0 0 0 0 0 0 0 0 0 0 0 1 1 2 3 3 1 1 0 0 0 0 0 0 0 0 0 0 0 0 0 0 0 0 0 0
8 7 4 1 0 0 0 0 0 0 0 0 0 0 0 0 0 0 0 0 0 0 0 0 0 0 1 2 3 2 2 1 1 1 1 0 0 1 1 1 0 0 0 0 0 0 0 0 0
8 5 2 0 0 0 0 0 0 0 0 0 0 0 0 0 0 0 0 0 0 0 0 0 0 0 0 1 2 2 1 1 1 0 1 1 1 2 2 1 1 1 1 1 1 1 0 0 0
4 3 1 0 0 0 0 0 0 0 0 0 0 0 0 0 0 0 0 0 0 0 0 0 0 0 0 0 1 1 0 0 0 0 1 1 1 2 3 3 2 2 1 2 2 1 0 0 1
1 1 0 0 0 0 0 0 0 0 0 0 0 0 0 0 0 0 0 0 0 0 0 0 0 0 0 0 0 0 0 0 0 0 1 1 1 2 3 3 3 3 3 3 2 1 0 1 2
0 0 0 0 0 0 0 0 0 0 0 0 0 0 0 0 0 0 0 0 0 0 0 0 0 1 0 0 0 0 0 0 0 0 1 0 0 1 2 3 4 4 3 2 1 0 0 1 4
1 0 0 0 0 0 0 0 0 0 0 0 0 0 0 0 0 0 0 0 0 0 0 0 0 0 0 0 0 0 0 0 0 0 1 1 1 2 1 2 5 5 3 1 0 0 0 1 3
1 0 0 0 0 0 0 0 0 0 0 0 0 0 0 0 0 0 0 0 0 0 0 0 0 0 0 0 0 0 1 1 1 0 0 1 2 2 1 2 5 5 3 1 0 0 0 0 1
1 0 0 0 0 0 0 0 0 0 0 0 0 1 2 1 0 0 0 0 0 0 0 0 0 0 0 1 1 1 2 2 2 1 1 1 1 1 1 2 3 4 4 2 1 0 0 0 0
0 0 0 0 0 0 0 0 0 0 0 0 1 2 3 2 0 0 0 0 0 0 0 0 0 1 2 3 4 3 2 2 2 2 2 1 0 0 0 2 3 4 4 3 1 0 0 0 0
0 0 0 0 0 0 0 0 0 0 0 0 1 2 2 1 0 0 1 2 2 0 0 1 1 2 5 8 8 6 4 2 2 2 2 1 0 0 0 1 3 3 4 3 1 0 0 0 0
0 0 0 0 0 0 0 0 0 0 0 1 2 3 2 0 0 0 1 3 3 1 1 2 3 4 6 9 10 7 4 2 1 1 1 1 0 0 0 1 2 2 2 2 1 0 0 0 0
0 0 0 0 0 0 0 0 0 0 0 1 2 3 2 2 1 1 1 3 3 1 1 2 3 5 7 7 8 7 5 3 2 1 1 0 0 0 0 0 1 1 1 1 0 0 0 0 0
0 0 0 0 0 0 0 0 0 0 0 1 2 3 4 4 3 2 2 3 3 2 1 1 3 5 6 6 6 5 4 4 4 3 2 1 1 0 0 0 0 0 0 0 0 0 0 0 0
0 0 0 0 0 0 0 0 0 0 0 1 2 3 4 5 5 4 4 5 6 5 4 3 4 4 4 4 4 4 4 3 3 2 2 2 2 1 0 0 0 0 0 0 0 0 0 0 0
0 0 0 0 0 0 0 0 0 0 0 0 1 2 3 5 7 6 5 6 7 8 8 9 8 7 5 4 3 3 3 2 1 1 1 2 2 2 1 0 0 0 0 0 0 1 1 1 0
0 0 0 0 0 0 0 0 0 0 0 0 0 1 3 4 6 6 5 6 8 10 13 15 14 13 10 7 4 3 3 2 1 1 1 1 1 1 1 0 0 0 0 1 1 1 1 1 0
0 0 0 0 0 0 0 0 0 0 0 0 0 1 2 3 5 6 7 7 9 12 15 18 19 18 15 9 5 4 3 2 1 1 0 0 0 0 0 0 0 0 0 2 3 3 2 1 0
0 0 0 0 0 0 0 0 0 0 0 0 0 0 1 2 4 6 8 9 10 12 14 17 20 21 18 12 6 3 3 2 2 2 2 1 1 0 0 0 1 1 0 1 4 6 5 3 2
0 0 0 0 0 0 0 0 0 0 0 1 1 0 0 1 2 4 7 9 11 12 14 18 22 25 25 20 12 7 5 3 4 4 5 5 4 2 1 1 2 2 1 2 5 8 9 8 7
0 0 0 0 0 0 0 0 0 0 0 1 1 0 0 0 0 1 4 9 12 14 16 20 26 31 33 30 24 18 10 5 5 5 7 8 7 5 3 4 4 4 3 4 6 9 11 11 11
0 0 0 0 0 0 0 0 0 0 0 1 1 1 1 1 0 1 4 9 14 16 18 22 30 37 38 36 34 29 21 13 9 8 9 10 8 8 8 7 7 6 5 6 7 9 10 11 11
0 0 0 0 0 0 0 0 0 1 1 2 2 2 2 2 2 3 6 10 15 18 19 24 32 38 40 39 37 34 30 22 15 13 13 11 9 10 12 12 11 10 8 7 7 8 9 9 9
0 0 0 0 0 0 0 0 0 1 2 3 3 3 3 3 4 7 11 13 16 18 20 25 33 39 40 39 37 35 32 24 18 18 16 14 12 13 15 16 14 13 11 8 7 7 7 7 7
0 0 0 0 0 0 0 0 0 1 1 3 3 4 4 4 6 11 15 16 17 17 20 25 33 39 41 40 39 37 33 27 24 23 22 19 19 18 17 17 17 16 14 11 8 7 7 7 6
0 0 0 0 0 0 0 0 0 0 1 3 3 4 6 7 9 14 19 21 19 17 19 25 31 38 42 42 41 40 38 35 32 31 28 24 23 22 20 19 20 19 16 14 11 9 8 7 6
0 0 0 0 0 0 0 0 0 1 2 4 5 7 9 10 13 16 21 25 24 21 21 25 29 34 39 43 44 44 43 42 41 37 32 28 27 26 23 22 22 19 16 16 15 11 8 6 6
0 0 0 0 0 0 0 0 0 1 3 6 8 10 10 12 14 18 22 27 28 25 25 27 29 31 38 43 46 46 46 46 45 41 35 32 33 31 25 23 22 18 15 16 17 12 7 5 5

GEFSSGP_con_prob3kmehi_246.txt.gz
EHI
13 22 38 45 29 8 1 0 0 0 0 0 0 0 0 0 0 0 0 1 2 2 1 0 0 0 0 0 0 0 0 0 0 0 0 0 0 0 0 0 0 0 1 2 1 0 0 0 0
15 26 39 35 18 4 0 0 0 0 0 0 0 0 0 0 0 0 0 1 1 1 0 1 1 0 0 0 0 0 0 0 0 0 0 0 0 0 0 0 0 1 2 2 1 1 0 0 1
20 29 32 20 7 1 0 0 0 0 0 0 0 0 0 0 0 0 0 1 1 1 1 2 2 1 0 0 0 0 0 0 1 0 0 1 1 0 0 0 1 1 3 3 2 1 1 1 2
29 29 20 8 2 0 0 0 0 0 0 0 0 0 0 0 0 0 0 1 2 2 2 3 3 2 1 0 0 0 0 0 0 0 0 1 2 1 1 1 2 3 3 3 2 1 1 1 2
35 27 14 4 0 0 0 0 0 0 0 0 0 0 0 0 0 0 0 1 1 2 3 3 4 3 2 0 0 0 0 0 0 0 0 1 2 2 2 2 2 2 2 1 1 0 0 1 1
32 23 9 1 0 0 0 0 0 0 0 0 0 0 0 0 0 0 0 0 1 2 4 4 4 3 2 1 0 0 0 0 0 0 0 0 1 2 2 1 1 1 1 0 0 0 0 0 0
22 15 5 0 0 0 0 0 0 0 0 0 0 0 0 0 0 0 0 0 1 2 4 5 5 4 4 3 1 0 0 0 0 0 0 0 0 1 1 0 0 0 0 0 0 0 0 0 1
9 5 1 0 0 0 0 0 0 0 0 0 0 0 0 0 0 0 0 0 0 1 2 3 5 6 6 4 2 2 1 1 1 1 1 1 0 0 0 0 0 0 0 0 0 0 0 1 2
1 0 0 0 0 0 0 0 0 0 0 0 0 0 0 0 0 0 0 0 0 0 0 1 3 5 5 4 4 3 3 3 3 3 3 3 1 0 0 0 0 1 0 0 1 1 2 3 5
0 0 0 0 0 0 0 0 0 0 0 0 0 0 0 0 0 0 0 0 0 0 0 0 1 2 4 4 5 4 3 3 3 3 3 3 2 0 0 1 1 1 0 1 2 3 3 4 4
0 0 0 0 0 0 0 0 0 0 0 0 0 0 0 0 0 0 0 0 0 0 0 0 1 3 6 7 7 6 3 1 1 1 1 1 1 0 1 2 3 2 1 1 2 4 3 2 2
0 0 0 0 0 0 0 0 0 0 0 0 0 0 0 0 0 0 0 0 0 0 0 1 3 7 12 14 12 8 5 2 1 0 0 0 0 0 1 2 3 3 2 1 1 3 3 2 1
0 0 0 0 0 0 0 0 0 0 0 0 0 0 0 0 1 2 1 1 1 1 2 4 6 9 13 16 16 12 9 5 3 3 4 3 1 1 1 3 4 3 1 1 1 2 2 2 2
0 0 0 0 0 0 0 0 0 0 0 0 1 1 0 1 3 4 4 4 5 4 5 8 9 9 10 12 15 15 11 7 7 9 10 6 4 3 2 3 3 2 0 0 0 0 1 1 1
0 0 0 0 0 0 0 0 0 0 0 1 2 2 2 3 4 5 6 9 10 10 10 9 10 11 10 10 11 11 9 9 11 15 14 9 6 4 3 2 2 2 1 1 2 1 0 0 0
0 0 0 0 0 0 0 0 0 0 0 1 2 3 3 5 5 5 8 12 14 16 14 10 9 12 13 12 10 8 7 8 12 16 15 11 8 5 3 2 2 2 1 2 4 3 1 0 0
0 0 0 0 0 0 0 0 0 0 0 1 2 3 4 6 7 7 10 15 20 23 22 14 11 14 15 14 12 9 8 7 10 13 14 13 11 8 5 4 5 3 2 3 4 5 4 4 3
0 0 0 0 0 0 0 0 0 0 0 0 1 3 4 6 9 10 13 19 25 32 33 25 18 16 17 17 15 13 11 10 9 10 14 14 12 8 6 7 8 6 5 6 8 9 9 8 7
0 0 0 0 0 0 0 1 1 0 0 0 1 3 4 7 11 15 18 22 30 39 42 36 27 21 20 20 20 18 16 14 12 12 17 17 11 8 7 8 9 9 10 12 14 14 11 9 9
0 0 0 0 0 0 0 1 1 1 1 1 2 3 5 10 16 23 26 28 35 45 47 42 34 27 23 21 20 21 20 17 15 18 24 23 16 10 9 10 10 10 13 17 19 18 14 11 10
0 0 0 0 0 0 0 0 1 2 2 2 2 3 5 11 21 29 32 34 41 49 49 44 41 36 28 21 18 19 20 17 17 22 30 30 24 18 15 16 14 11 12 16 20 20 20 17 15
0 0 0 0 0 0 0 0 1 2 2 2 2 2 4 9 19 29 35 38 44 50 49 48 50 46 36 26 20 18 17 14 16 23 33 35 32 27 25 22 20 15 12 14 17 19 21 22 21
0 0 0 0 0 0 0 0 1 2 3 2 2 2 3 7 15 24 34 40 44 48 49 52 57 56 47 36 29 23 18 13 14 23 33 37 36 35 33 29 24 19 15 15 16 19 21 22 21
0 0 0 0 0 0 0 0 0 1 2 3 3 3 3 5 13 23 33 39 42 44 48 55 63 63 55 45 38 31 24 17 17 25 34 37 39 40 39 34 29 25 21 18 19 21 21 19 17
0 0 0 0 0 0 0 0 0 0 1 2 4 5 5 6 13 25 36 40 40 42 48 59 68 66 59 52 45 38 30 23 23 30 35 36 38 41 41 38 35 31 26 21 22 24 22 17 15
0 0 0 0 0 0 0 0 0 0 0 2 3 5 6 7 14 26 37 42 42 43 50 62 70 68 60 54 48 42 34 28 29 36 39 38 38 39 42 42 39 35 28 23 25 26 22 18 16
0 0 0 0 0 0 1 2 1 0 1 2 4 4 5 8 15 24 34 41 44 48 55 64 71 69 60 53 49 46 41 35 35 41 43 41 38 38 42 44 41 38 33 27 26 26 22 19 18
0 0 0 0 0 0 2 2 2 1 1 4 6 5 5 11 17 24 32 39 44 52 59 66 71 70 61 53 49 51 51 47 46 48 48 46 42 40 41 42 42 41 37 31 27 25 23 20 18
0 0 0 0 0 0 1 2 1 2 4 7 10 9 10 14 21 26 33 40 45 52 60 66 69 68 62 55 53 56 61 61 59 57 55 54 50 44 41 41 42 43 41 35 31 28 25 23 20
0 0 0 0 0 0 0 1 1 2 6 10 12 13 14 18 24 29 34 40 46 51 57 63 67 66 61 58 57 59 65 68 65 63 61 60 54 47 42 41 42 44 43 39 34 30 28 26 23

GEFSSGP_con_prob3kmehi_252.txt.gz
EHI
9 5 1 0 0 0 0 0 0 0 0 0 0 0 0 0 0 0 0 0 0 0 1 2 3 3 1 0 0 0 1 1 2 1 0 0 1 3 3 2 1 0 0 0 0 0 0 0 0
8 5 1 0 0 0 0 0 0 0 0 0 0 0 0 0 0 0 0 0 0 0 0 2 3 3 2 1 0 0 1 2 3 1 0 1 2 3 3 2 1 0 0 0 0 0 0 0 0
6 4 1 0 0 0 0 0 0 0 0 0 0 0 0 0 0 0 0 0 0 0 1 3 4 4 3 1 0 0 1 2 2 1 0 1 2 3 3 2 1 0 0 0 0 0 0 0 0
5 4 1 0 0 0 0 0 0 0 0 0 0 0 0 0 1 1 0 0 0 0 1 3 5 6 5 3 1 0 0 1 1 0 0 1 2 3 2 1 0 0 0 0 0 0 0 0 0
7 5 2 0 0 0 0 0 0 0 0 0 0 0 0 1 2 1 0 0 0 0 1 2 6 8 7 5 3 1 0 0 0 0 0 1 2 2 1 0 0 0 0 0 0 0 0 0 0
10 6 2 0 0 0 0 0 0 0 1 0 0 0 1 2 2 1 0 0 1 1 1 3 6 7 7 5 3 2 0 0 0 0 0 0 1 1 0 0 0 0 0 0 0 0 0 0 0
11 6 1 0 0 0 0 0 0 0 0 0 0 0 1 2 3 1 0 1 2 2 3 4 6 6 6 5 3 1 0 0 0 0 0 0 1 0 0 0 0 0 0 0 0 0 0 0 1
9 5 1 0 0 0 0 0 0 0 0 0 0 0 1 2 3 2 1 1 2 2 3 5 6 6 6 6 4 2 0 0 0 0 0 1 1 0 0 0 0 0 0 0 0 0 1 2 2
5 3 1 0 0 0 0 0 0 0 0 0 0 0 0 2 3 2 1 0 1 1 2 4 6 6 6 6 5 3 1 1 0 0 0 1 0 0 0 0 0 0 0 0 0 2 3 3 2
1 1 1 0 0 0 0 0 0 0 0 0 1 1 1 2 3 3 2 0 0 0 0 2 4 4 3 4 4 3 1 0 0 0 0 0 0 0 0 0 0 0 0 0 0 2 3 2 1
0 0 0 0 0 0 0 0 0 0 0 1 2 1 1 1 2 4 3 1 0 0 0 0 1 1 1 2 3 3 1 0 0 0 0 0 0 0 0 0 0 0 0 0 0 1 1 0 0
0 0 0 0 0 0 0 0 0 0 0 1 1 1 0 0 2 4 3 1 0 0 0 0 0 0 0 1 3 3 2 0 0 0 0 0 0 0 0 0 0 0 0 0 0 0 0 0 0
0 0 0 0 0 0 0 0 0 0 0 0 0 0 0 1 3 5 3 1 0 1 1 1 1 1 1 1 3 3 1 0 0 0 0 0 0 0 0 0 0 0 0 0 0 0 0 0 0
0 0 0 0 0 0 0 0 0 0 0 0 0 0 0 1 4 5 4 2 1 2 2 2 2 2 2 3 3 3 1 0 0 0 0 0 0 0 0 0 0 0 0 0 0 0 0 0 0
0 0 0 0 0 0 0 0 0 0 0 0 0 0 1 1 3 4 5 4 4 4 4 4 4 3 3 4 4 3 2 1 1 0 0 0 0 0 0 0 0 0 0 0 0 0 0 0 0
0 0 0 0 0 0 0 0 0 0 0 0 0 0 1 2 2 3 6 8 8 8 7 7 5 4 3 4 4 3 2 2 1 0 0 0 0 0 0 0 0 0 0 0 0 0 0 0 0
0 0 0 0 0 0 0 0 0 0 0 0 0 0 1 2 3 5 8 12 13 12 10 8 6 5 4 4 4 3 1 1 0 0 0 1 1 1 0 0 0 0 0 0 0 0 0 0 0
0 0 0 0 0 0 0 0 1 1 1 1 0 1 2 3 6 9 13 17 18 16 14 10 7 6 5 4 4 3 1 0 0 0 1 2 3 2 1 0 0 0 0 1 1 0 0 0 1
0 0 0 0 0 0 0 0 1 2 3 2 2 2 3 5 8 13 19 23 24 22 18 14 11 8 6 4 4 2 1 0 0 1 3 4 4 3 3 1 0 1 2 1 1 1 0 1 2
0 0 0 0 0 0 0 0 1 2 3 3 3 4 5 7 11 15 22 28 31 28 23 19 15 12 8 6 5 2 0 0 0 1 3 6 6 4 5 4 2 3 4 3 3 2 2 2 3
0 0 0 0 0 0 0 0 1 2 3 3 3 4 6 9 13 17 23 30 35 34 29 24 18 14 10 8 6 4 2 1 0 1 3 6 6 5 6 7 5 5 6 6 6 4 3 3 3
0 0 0 0 0 0 0 0 1 2 3 3 3 4 6 10 15 18 24 32 37 38 34 28 20 14 12 10 9 6 3 2 1 1 2 5 6 7 9 10 9 7 7 8 7 6 4 4 4
0 0 0 0 0 0 0 0 1 2 3 3 3 3 5 10 15 17 22 30 35 38 37 31 21 15 13 13 11 8 4 3 1 0 1 4 7 10 12 14 12 9 8 7 6 6 6 5 5
0 0 0 0 0 0 0 0 0 1 2 3 2 2 4 10 14 16 20 26 32 36 37 33 25 18 14 12 11 9 6 4 2 1 1 4 8 11 13 14 13 10 9 7 6 6 6 6 6
0 0 0 0 0 0 0 0 0 0 1 2 2 2 5 10 15 18 22 27 32 37 38 35 30 23 16 12 11 10 8 5 3 2 2 5 9 11 12 12 12 11 9 8 8 7 7 7 7
0 0 0 0 0 0 1 1 0 0 2 3 4 5 8 12 19 24 27 30 34 37 39 38 34 27 21 17 13 11 9 7 5 5 6 9 9 10 10 10 11 10 10 9 9 9 9 8 8
0 0 0 0 0 0 1 1 0 1 5 7 7 10 12 16 22 28 31 33 35 35 37 39 35 30 26 22 16 12 10 9 8 8 10 11 10 10 10 11 11 11 10 10 10 9 9 9 9
0 0 0 0 0 0 1 1 1 3 7 9 11 16 18 19 23 28 31 33 34 34 35 35 34 31 29 25 19 15 13 12 11 12 13 13 12 11 13 15 15 14 13 12 11 9 9 10 10
0 0 0 0 0 0 0 0 1 4 9 12 16 21 24 24 24 26 27 28 31 34 35 34 32 31 30 28 24 20 17 16 16 17 17 16 14 14 17 19 19 17 16 15 14 11 10 10 10
0 0 0 0 0 0 0 0 1 5 12 16 18 24 28 27 25 24 23 24 28 31 35 35 34 32 31 30 28 24 21 20 20 22 20 17 15 16 19 21 20 18 17 17 17 14 11 11 10

GEFSSGP_con_prob3kmehi_258.txt.gz
EHI
7 3 1 0 0 0 0 0 0 0 0 0 0 0 0 0 0 0 0 1 3 3 4 6 6 7 8 7 6 4 3 4 4 4 4 3 3 2 3 3 2 1 0 0 0 0 0 0 0
3 2 0 0 0 0 0 0 0 0 0 0 0 0 0 0 0 0 0 2 3 3 4 6 6 7 7 7 6 4 4 4 4 5 4 4 3 3 3 3 3 1 0 0 0 0 0 0 0
1 0 0 0 0 0 0 0 0 0 0 0 0 0 0 0 0 0 0 2 3 3 4 5 6 6 5 5 5 4 5 4 4 4 5 4 4 3 3 3 3 2 1 1 1 1 0 0 1
0 0 0 0 0 0 0 0 0 0 0 0 0 0 0 0 0 0 1 2 3 3 3 4 6 6 4 4 4 4 5 5 4 3 4 4 3 3 3 3 3 3 3 2 2 1 1 1 2
0 0 0 0 0 0 0 0 0 0 0 0 0 0 0 0 0 0 1 2 3 3 3 4 6 6 4 3 4 4 4 4 3 3 3 3 3 3 3 3 3 3 3 3 3 2 1 2 3
0 0 0 0 0 0 0 0 0 0 0 0 0 0 0 0 0 0 1 2 3 3 3 4 5 6 4 3 3 4 3 3 3 3 3 3 3 3 3 3 3 3 3 3 3 3 3 3 3
0 0 0 0 0 0 0 0 0 0 0 0 0 1 1 0 0 0 0 1 3 3 3 4 5 6 5 4 3 3 3 3 3 3 3 3 3 3 3 3 3 3 3 3 3 3 3 3 3
0 0 0 0 0 0 0 0 0 0 0 0 0 1 1 1 0 0 0 1 2 3 3 4 5 6 6 4 3 3 3 3 3 3 3 3 2 2 3 3 3 3 3 3 3 3 3 3 3
0 0 0 0 0 0 0 0 0 0 0 0 0 1 3 2 1 0 0 0 1 2 3 4 5 6 5 4 3 3 2 2 2 2 2 1 1 1 1 3 3 3 3 3 3 3 3 2 2
0 0 0 0 0 0 0 0 0 0 0 0 0 2 5 4 1 0 0 0 0 1 3 3 4 4 4 3 3 3 2 1 1 1 1 0 0 0 1 2 2 2 2 2 2 2 1 1 1
1 0 0 0 0 0 0 0 0 0 0 0 2 5 7 5 1 0 0 0 0 1 2 3 3 2 2 2 2 2 1 0 0 0 0 0 0 0 0 1 1 1 1 1 1 1 0 0 0
2 1 0 0 0 0 0 0 0 0 0 1 3 6 7 4 1 0 0 0 0 0 1 3 3 2 2 2 2 2 1 0 0 0 0 0 0 0 0 0 0 0 0 0 0 0 0 0 0
2 1 0 0 0 0 0 0 0 0 0 1 4 7 6 3 1 0 0 0 0 0 1 2 3 3 4 4 3 3 2 0 0 0 0 0 0 0 0 0 0 0 0 0 0 0 0 0 0
1 0 0 0 0 0 0 0 0 0 0 1 3 6 5 3 1 0 0 0 0 0 0 2 3 5 6 5 4 3 1 0 0 0 0 0 0 0 0 0 0 0 0 0 0 0 0 0 0
0 0 0 0 0 0 0 0 0 0 0 0 2 4 4 3 1 0 0 0 0 0 1 3 6 6 6 5 4 2 1 0 0 0 0 0 0 0 0 0 0 0 0 0 0 0 0 0 0
0 0 0 0 0 0 0 0 0 0 0 0 0 2 3 2 1 0 0 0 0 0 2 5 8 8 6 5 3 1 0 0 0 0 0 0 0 0 0 0 0 1 1 0 0 0 0 0 0
0 0 0 0 0 0 0 0 0 0 0 0 0 1 2 3 1 0 0 0 0 0 3 7 9 9 8 6 3 1 1 0 0 0 0 0 0 0 0 0 1 2 2 1 0 1 1 1 1
0 0 0 0 0 0 0 0 0 0 0 0 0 1 2 3 2 1 0 0 0 1 3 7 8 9 9 7 4 3 2 1 1 1 1 0 0 1 1 1 1 3 3 2 2 2 2 2 2
0 0 0 0 0 0 0 0 0 0 0 0 0 0 1 2 2 1 1 0 1 3 4 5 7 9 8 6 4 3 3 3 2 2 2 1 1 2 2 2 3 3 4 3 3 3 3 3 3
0 0 0 0 0 0 0 0 0 0 0 0 0 0 0 1 1 2 2 2 3 5 5 5 6 7 7 5 4 3 3 3 3 3 3 3 3 3 4 4 5 5 5 5 5 4 3 3 3
0 0 0 0 0 0 0 0 0 0 0 0 0 0 0 0 1 3 5 5 6 7 6 6 6 6 6 5 4 3 3 3 3 3 3 3 3 4 5 6 7 7 6 6 6 5 4 4 4
0 0 0 0 0 0 0 0 0 0 0 0 0 0 1 1 2 4 6 7 8 9 8 7 7 7 7 5 4 3 3 3 3 3 3 3 3 4 6 7 7 7 7 6 6 6 6 5 5
0 0 0 0 0 0 0 0 0 0 0 0 0 0 1 2 2 4 6 7 9 10 9 8 8 8 7 4 3 3 3 3 3 3 3 3 3 4 6 6 6 6 6 6 6 6 6 6 6
0 0 0 0 0 0 0 0 0 0 0 0 0 1 2 2 2 4 6 8 11 13 12 11 10 9 6 4 4 4 5 4 4 3 3 3 3 4 6 6 6 6 6 6 6 6 6 6 6
0 0 0 0 0 0 0 0 0 0 0 0 0 1 2 2 2 5 8 11 14 16 16 14 12 9 6 4 5 7 7 7 6 4 3 3 3 4 6 6 6 6 6 6 6 6 6 6 6
0 0 0 0 0 0 0 0 0 0 0 0 0 1 2 4 5 7 11 14 17 18 18 17 14 10 7 7 8 8 7 7 6 4 3 3 3 4 5 6 6 6 6 7 7 7 6 6 6
0 0 0 0 0 0 0 0 0 1 1 1 1 1 3 6 8 10 13 16 17 17 17 17 15 12 11 10 9 8 7 6 5 4 4 4 4 4 4 5 6 6 6 7 7 7 6 6 6
0 0 0 0 0 0 0 0 0 2 3 3 2 3 5 9 11 12 14 15 16 15 14 14 15 15 15 14 12 10 8 6 5 5 6 6 5 5 5 5 6 6 6 7 7 7 6 6 6
0 0 0 0 0 0 0 0 0 1 3 3 3 4 8 12 14 14 14 13 13 12 11 11 13 16 18 17 16 13 10 8 7 7 8 9 8 8 7 7 6 6 6 7 7 7 7 7 8
0 0 0 0 0 0 0 0 0 1 2 3 4 5 9 14 16 15 13 11 10 10 10 10 12 15 17 18 18 15 12 9 9 9 9 10 10 9 9 8 7 6 6 7 8 8 7 9 10

GEFSSGP_con_prob3kmehi_264.txt.gz
EHI
5 4 4 4 4 1 0 0 0 0 0 0 0 0 0 0 0 0 0 0 0 0 1 2 3 3 2 2 2 1 0 0 0 0 0 0 0 0 0 1 1 0 0 0 1 2 2 3 3
3 4 5 5 2 0 0 0 0 0 0 0 0 0 0 0 0 0 0 0 0 0 1 2 3 2 2 2 2 1 0 0 0 0 0 0 0 0 0 1 1 0 0 0 0 1 1 2 1
2 5 7 4 1 0 0 0 0 0 0 0 0 0 0 0 0 0 0 0 0 0 1 3 3 2 1 1 2 1 0 0 0 0 0 0 0 0 0 1 1 0 0 0 0 0 0 0 0
5 7 6 2 0 0 0 0 0 0 0 0 0 0 0 0 0 0 0 0 0 1 2 3 4 3 1 0 1 1 0 0 0 0 0 0 0 0 0 0 0 0 0 0 0 0 0 0 0
8 8 4 1 0 0 0 0 0 0 0 0 0 0 0 0 0 0 0 0 0 1 2 4 4 3 2 0 0 1 0 0 0 0 0 0 0 0 0 0 0 0 0 0 0 0 0 0 0
8 6 2 0 0 0 0 0 0 0 0 0 0 0 0 0 0 0 0 0 0 1 2 3 3 2 1 0 0 0 0 0 0 0 0 0 0 0 0 0 0 0 0 0 0 0 0 0 0
6 4 1 0 0 0 0 0 0 0 0 0 0 0 0 0 0 0 0 0 0 1 2 2 2 1 0 0 0 0 0 0 0 0 0 0 0 0 0 0 0 0 0 0 0 0 0 0 0
4 3 1 0 0 0 0 0 0 0 0 0 0 0 0 0 0 0 0 0 0 0 1 1 1 0 0 1 1 0 0 0 0 0 0 1 1 0 0 0 0 0 0 0 0 0 0 0 0
3 2 1 0 0 0 0 0 0 0 0 0 0 0 0 0 0 0 0 0 0 0 1 1 1 1 1 2 2 1 0 0 0 0 0 1 1 0 0 0 0 0 0 0 0 0 0 0 0
3 2 1 0 0 0 0 0 0 0 0 0 1 1 1 1 1 0 0 0 0 0 1 2 3 3 3 3 3 2 1 0 0 0 0 0 0 1 1 1 0 0 0 0 0 0 0 0 0
2 1 0 0 0 0 0 0 0 0 0 0 1 2 2 2 2 1 0 0 0 0 1 3 4 4 3 3 3 3 2 1 0 0 0 0 1 2 3 3 1 1 0 0 0 0 0 0 0
1 0 0 0 0 0 0 0 0 0 0 0 1 3 3 3 2 1 0 0 0 0 1 3 5 5 4 4 3 3 3 1 0 0 0 0 1 2 4 5 4 2 1 1 1 0 0 0 0
0 0 0 0 0 0 0 0 0 0 0 0 1 3 3 3 2 1 0 0 0 1 2 4 6 7 7 6 4 4 3 2 0 0 0 0 0 1 4 5 5 3 3 2 2 1 1 1 0
0 0 0 0 0 0 0 0 0 0 0 1 2 3 3 3 2 1 0 0 0 1 2 5 7 9 9 8 5 3 2 1 0 0 0 0 0 1 3 4 4 3 3 3 3 3 3 2 1
0 0 0 0 0 0 0 0 0 0 0 1 2 3 3 3 2 1 0 0 0 1 2 4 7 9 9 8 5 2 1 0 0 0 0 0 0 1 2 3 3 3 3 3 4 4 5 3 1
0 0 0 0 0 0 0 0 0 0 0 1 2 3 3 3 2 0 0 0 0 1 3 5 7 8 9 9 6 2 0 0 0 0 0 0 0 1 2 3 3 3 4 4 4 4 5 5 2
0 0 0 0 0 0 0 0 0 0 0 0 1 2 3 3 2 1 0 1 1 2 4 6 8 8 8 8 7 3 0 0 0 0 0 0 0 0 2 3 4 4 5 5 5 5 6 5 4
0 0 0 0 0 0 0 0 0 0 0 0 1 2 3 3 4 3 2 2 2 2 4 6 8 9 8 8 8 5 2 0 0 0 0 0 0 1 2 4 5 6 6 6 5 5 5 4 4
0 0 0 0 0 0 0 0 0 0 0 0 1 2 2 4 5 5 4 3 2 2 4 6 8 9 8 8 8 7 3 1 0 0 0 0 0 1 2 5 6 6 6 6 5 4 4 3 3
0 0 0 0 0 0 0 0 0 0 0 0 0 1 1 3 6 8 7 6 4 4 6 8 8 8 8 7 7 7 4 1 0 0 0 0 0 0 1 4 5 4 5 6 5 4 3 3 3
0 0 0 0 0 0 0 0 0 0 0 0 0 0 0 2 6 9 10 10 8 8 9 10 9 9 9 8 8 7 5 2 1 1 1 1 1 1 1 2 2 3 4 5 4 3 3 3 3
1 1 1 0 0 0 0 0 0 0 0 0 1 1 0 1 5 10 12 12 11 9 10 12 14 14 13 11 9 9 7 5 3 3 3 3 2 2 1 1 1 3 5 5 4 3 3 3 3
1 1 0 0 0 0 0 0 0 0 0 1 2 2 1 1 3 8 11 12 11 9 9 13 16 16 15 14 13 11 9 8 6 5 5 6 5 4 3 2 3 5 6 6 6 5 5 5 4
1 0 0 0 0 0 0 0 0 0 0 1 2 3 3 3 4 7 9 10 10 9 9 11 14 16 15 16 15 13 11 11 11 9 8 8 8 7 6 5 5 6 6 7 9 10 9 9 8
0 0 0 0 0 0 0 0 0 0 0 0 2 4 7 7 8 8 9 10 11 11 10 11 14 16 17 18 17 15 14 15 15 11 9 8 7 6 6 6 6 6 6 8 12 14 15 14 13
0 0 0 0 0 0 0 0 0 0 1 1 2 5 10 12 11 10 9 10 13 13 13 15 17 18 19 20 21 19 18 16 16 13 9 7 6 6 6 7 6 7 7 9 13 17 19 19 17
0 0 0 0 0 0 0 0 0 0 2 3 4 7 12 14 12 10 8 9 13 15 15 16 18 19 20 21 22 22 19 17 14 12 9 7 8 8 8 8 9 11 12 13 15 20 23 23 21
0 0 0 0 0 0 0 0 0 1 2 5 6 10 14 16 14 11 9 9 11 14 15 16 18 21 22 21 20 20 20 17 13 11 9 10 12 14 13 13 15 17 18 20 22 24 25 25 23
0 0 0 0 0 0 0 0 1 2 3 5 8 12 17 19 19 17 17 16 15 15 16 19 24 26 27 25 22 20 19 17 13 11 10 13 16 18 19 20 21 22 24 27 28 27 26 25 23
0 0 0 0 0 0 0 1 2 3 4 5 8 13 19 24 24 23 24 25 23 19 19 24 28 30 30 29 26 22 20 18 16 12 11 14 17 20 22 23 24 25 28 31 31 29 26 24 23

GEFSSGP_con_prob3kmehi_270.txt.gz
EHI
4 9 21 31 26 10 1 0 0 0 0 0 0 0 0 0 0 0 0 0 1 3 5 5 3 1 0 0 0 0 1 2 2 2 2 3 3 2 1 0 0 0 0 0 0 1 3 5 7
9 18 28 28 18 6 0 0 0 0 0 0 0 0 0 0 0 0 0 0 1 3 5 5 4 1 0 0 0 0 1 2 2 2 3 3 3 2 1 0 0 0 0 0 0 1 2 3 4
20 26 30 23 10 2 0 0 0 0 0 0 0 0 0 0 0 0 0 1 2 4 6 7 5 3 1 1 0 0 1 2 2 2 2 2 1 1 1 1 0 0 0 0 0 1 2 2 2
30 30 25 14 4 0 0 0 0 0 0 0 0 0 0 0 0 0 0 1 2 5 7 7 6 4 3 2 1 0 1 1 1 1 1 1 1 0 1 1 0 0 0 0 1 2 4 4 3
31 27 17 6 1 0 0 0 0 0 0 0 0 0 0 0 0 0 0 1 3 5 7 6 5 4 3 2 1 0 0 0 0 0 0 0 0 0 1 1 0 0 0 0 1 3 3 3 3
23 19 9 2 0 0 0 0 0 0 0 0 0 0 0 0 0 0 0 1 2 5 6 6 5 5 3 1 0 0 0 0 0 0 0 0 0 0 1 1 0 0 0 0 1 2 1 1 1
17 12 4 0 0 0 0 0 0 0 0 0 0 0 0 0 0 0 0 0 1 3 5 5 5 5 4 2 1 0 0 0 0 0 0 0 0 0 0 0 0 0 0 0 1 1 0 0 0
12 8 3 0 0 0 0 0 0 0 0 0 0 0 0 0 0 0 0 0 0 1 3 4 4 4 3 3 2 1 1 0 0 0 0 0 0 0 0 0 0 0 0 0 0 0 0 1 1
8 6 2 0 0 0 0 0 0 0 0 0 1 1 0 0 0 0 0 0 0 0 1 3 4 3 2 2 3 3 2 1 1 1 1 0 0 0 0 0 0 1 1 1 1 1 1 2 3
4 4 1 0 0 0 0 0 0 0 0 1 2 2 1 0 0 0 0 0 0 0 0 1 3 2 1 2 3 3 2 1 2 2 2 1 1 1 1 1 2 3 3 3 3 3 3 3 3
1 1 0 0 0 0 0 0 0 0 0 1 3 3 2 1 1 1 1 1 0 1 1 1 3 3 2 2 2 2 1 1 1 2 2 2 1 2 2 2 4 6 5 4 3 3 3 2 1
0 0 0 0 0 0 0 0 0 0 0 2 3 2 1 2 2 2 3 3 2 2 3 4 6 8 9 9 6 3 1 0 0 1 1 2 2 2 3 4 6 7 6 5 4 2 1 0 0
0 0 0 0 0 0 0 0 0 0 0 1 2 1 0 1 3 3 4 4 4 4 6 8 10 13 17 19 16 8 3 0 0 1 1 1 1 2 4 6 8 8 6 6 5 3 1 0 0
0 0 0 0 0 0 0 0 0 0 0 1 1 0 0 1 3 3 4 5 5 5 8 10 13 14 18 21 18 11 4 0 0 1 1 1 1 2 5 9 10 9 8 7 5 4 3 2 2
0 0 0 0 0 0 0 0 0 0 0 1 1 1 1 3 4 4 5 6 6 7 10 12 13 14 15 16 14 9 4 1 0 1 1 2 3 4 6 9 9 9 8 8 7 6 6 5 4
0 0 0 0 0 0 0 0 0 0 0 0 1 2 4 5 5 6 8 9 10 12 14 14 13 14 14 13 10 6 4 2 1 1 3 4 6 7 7 7 7 8 9 9 8 6 5 5 6
0 0 0 0 0 0 0 1 0 0 0 0 1 3 6 6 6 8 10 12 15 19 19 15 15 15 14 12 9 6 5 4 3 3 4 6 7 8 9 9 9 10 9 8 7 6 6 7 7
0 0 0 0 0 0 0 1 1 0 0 1 2 4 7 7 7 8 10 14 20 25 24 20 18 17 15 11 8 7 8 8 7 8 8 8 8 9 9 8 9 10 9 8 8 8 8 8 10
0 0 0 0 0 0 1 1 2 2 1 1 2 5 10 13 13 13 13 18 27 32 30 25 21 19 17 13 11 10 10 11 12 14 14 12 10 10 9 8 8 10 11 11 11 10 8 8 8
0 0 0 0 0 1 2 2 2 3 2 0 2 6 14 22 25 25 22 24 34 40 36 29 24 22 20 16 14 13 13 14 16 18 18 16 13 11 9 9 10 11 13 15 14 13 9 6 5
0 0 0 0 0 1 2 1 2 3 2 0 1 4 13 26 35 35 30 31 39 44 40 32 29 27 24 20 17 15 15 15 17 20 21 18 15 12 10 10 10 10 12 15 17 15 10 5 4
0 0 0 0 0 0 0 0 1 2 2 1 1 3 10 23 34 36 33 35 41 43 40 37 36 34 29 23 19 17 15 14 17 22 22 20 18 14 11 11 10 8 9 12 14 14 11 7 5
0 0 0 0 0 0 0 0 0 1 2 2 1 3 8 18 28 32 33 36 39 39 41 41 42 40 34 27 22 19 15 13 17 20 21 21 20 18 16 16 14 11 9 10 12 14 14 10 7
0 0 0 0 0 0 0 0 0 1 2 2 2 4 7 16 25 31 34 36 36 37 41 44 46 44 39 31 26 23 19 17 17 17 17 17 19 20 21 21 20 15 13 14 15 16 16 13 10
0 0 0 0 0 0 0 0 0 1 2 2 2 4 7 15 26 34 39 41 39 37 40 47 52 50 43 35 29 28 27 22 18 16 14 14 15 19 24 26 24 20 17 17 18 20 18 16 15
0 0 0 0 0 0 0 0 1 2 3 2 2 4 8 15 26 36 42 44 41 39 41 50 57 55 47 40 34 34 33 28 22 18 15 13 12 18 26 30 29 25 22 20 21 22 22 21 21
0 0 0 0 0 0 0 1 2 4 4 3 3 6 10 17 25 33 38 40 39 40 45 55 62 59 50 44 40 40 40 33 26 22 19 15 14 20 29 33 33 30 28 27 26 25 25 25 26
0 0 0 0 0 0 0 1 2 4 5 4 5 8 12 17 23 28 31 32 34 38 46 58 64 62 54 48 45 46 47 40 31 26 24 23 22 26 31 34 33 32 32 32 31 29 28 28 29
0 0 0 0 0 0 0 0 2 4 6 5 6 9 14 18 23 29 31 31 33 38 47 56 61 60 56 53 51 53 53 47 37 33 34 34 34 33 33 34 33 33 32 31 32 32 31 32 33
0 0 0 0 0 0 0 1 2 4 5 6 7 10 15 19 25 31 33 33 34 39 48 55 58 57 55 55 57 58 57 50 43 41 43 43 40 36 34 34 35 34 32 30 31 33 34 34 34